Time,TemperatureF,DewpointF,PressureIn,WindDirection,WindDirectionDegrees,WindSpeedMPH,WindSpeedGustMPH,Humidity,HourlyPrecipIn,Conditions,Clouds,dailyrainin,SoftwareType,DateUTC
2013-01-30 00:01:00,56.3,26.1,30.07,SE,135,2.0,4.0,31,0.00,,,0.07,meteohub,2013-01-30 05:01:00,
2013-01-30 00:02:00,56.3,26.1,30.07,SE,135,2.0,4.0,31,0.00,,,0.07,meteohub,2013-01-30 05:02:00,
2013-01-30 00:03:00,56.3,26.1,30.07,SE,135,2.0,4.0,31,0.00,,,0.07,meteohub,2013-01-30 05:03:00,
2013-01-30 00:06:00,56.3,26.1,30.07,SE,135,2.0,4.0,31,0.00,,,0.00,meteohub,2013-01-30 05:06:00,
2013-01-30 00:07:00,55.9,27.3,30.06,SE,135,4.0,4.0,33,0.00,,,0.00,meteohub,2013-01-30 05:07:00,
2013-01-30 00:08:00,55.9,27.3,30.06,SE,135,4.0,4.0,33,0.00,,,0.00,meteohub,2013-01-30 05:08:00,
2013-01-30 00:12:00,56.5,27.0,30.06,SE,135,4.0,4.0,32,0.00,,,0.00,meteohub,2013-01-30 05:12:00,
2013-01-30 00:13:00,56.5,26.2,30.06,SE,135,4.0,4.0,31,0.00,,,0.00,meteohub,2013-01-30 05:13:00,
2013-01-30 00:14:00,56.7,26.4,30.06,SE,135,4.0,4.0,31,0.00,,,0.00,meteohub,2013-01-30 05:14:00,
2013-01-30 00:17:00,56.7,25.5,30.06,East,90,4.0,5.0,30,0.00,,,0.00,meteohub,2013-01-30 05:17:00,
2013-01-30 00:18:00,56.7,25.5,30.06,SE,135,4.0,5.0,30,0.00,,,0.00,meteohub,2013-01-30 05:18:00,
2013-01-30 00:19:00,56.5,25.3,30.06,SE,135,4.0,5.0,30,0.00,,,0.00,meteohub,2013-01-30 05:19:00,
2013-01-30 00:22:00,56.8,25.0,30.06,East,90,4.0,5.0,29,0.00,,,0.00,meteohub,2013-01-30 05:22:00,
2013-01-30 00:24:00,56.8,25.0,30.06,SE,135,5.0,5.0,29,0.00,,,0.00,meteohub,2013-01-30 05:24:00,
2013-01-30 00:27:00,57.2,24.4,30.05,SE,135,4.0,5.0,28,0.00,,,0.00,meteohub,2013-01-30 05:27:00,
2013-01-30 00:29:00,57.2,23.5,30.05,SE,135,4.0,5.0,27,0.00,,,0.00,meteohub,2013-01-30 05:29:00,
2013-01-30 00:30:00,57.2,23.5,30.06,SE,135,4.0,5.0,27,0.00,,,0.00,meteohub,2013-01-30 05:30:00,
2013-01-30 00:33:00,57.0,24.3,30.05,SE,135,4.0,5.0,28,0.00,,,0.00,meteohub,2013-01-30 05:33:00,
2013-01-30 00:35:00,57.0,24.3,30.05,SE,135,4.0,5.0,28,0.00,,,0.00,meteohub,2013-01-30 05:35:00,
2013-01-30 00:36:00,57.0,24.3,30.06,SE,135,4.0,5.0,28,0.00,,,0.00,meteohub,2013-01-30 05:36:00,
2013-01-30 00:40:00,57.2,24.4,30.06,SE,135,4.0,5.0,28,0.00,,,0.00,meteohub,2013-01-30 05:40:00,
2013-01-30 00:41:00,57.2,24.4,30.06,SE,135,4.0,4.0,28,0.00,,,0.00,meteohub,2013-01-30 05:41:00,
2013-01-30 00:42:00,57.4,24.6,30.06,SE,135,4.0,4.0,28,0.00,,,0.00,meteohub,2013-01-30 05:42:00,
2013-01-30 00:46:00,57.7,23.0,30.05,SE,135,5.0,5.0,26,0.00,,,0.00,meteohub,2013-01-30 05:46:00,
2013-01-30 00:48:00,57.6,23.0,30.04,SE,135,4.0,5.0,26,0.00,,,0.00,meteohub,2013-01-30 05:48:00,
2013-01-30 00:51:00,57.6,23.9,30.04,SE,135,4.0,5.0,27,0.00,,,0.00,meteohub,2013-01-30 05:51:00,
2013-01-30 00:52:00,57.4,23.7,30.04,East,90,4.0,5.0,27,0.00,,,0.00,meteohub,2013-01-30 05:52:00,
2013-01-30 00:53:00,57.4,23.7,30.04,SE,135,4.0,5.0,27,0.00,,,0.00,meteohub,2013-01-30 05:53:00,
2013-01-30 00:56:00,57.4,23.7,30.04,SE,135,4.0,5.0,27,0.00,,,0.00,meteohub,2013-01-30 05:56:00,
2013-01-30 00:57:00,57.4,23.7,30.04,SE,135,4.0,5.0,27,0.00,,,0.00,meteohub,2013-01-30 05:57:00,
2013-01-30 00:58:00,57.4,23.7,30.04,SE,135,3.0,5.0,27,0.00,,,0.00,meteohub,2013-01-30 05:58:00,
2013-01-30 01:00:00,57.4,23.7,30.04,SE,135,2.0,5.0,27,0.00,,,0.00,meteohub,2013-01-30 06:00:00,
2013-01-30 01:01:00,57.4,23.7,30.03,SE,135,2.0,5.0,27,0.00,,,0.00,meteohub,2013-01-30 06:01:00,
2013-01-30 01:03:00,57.4,23.7,30.03,SE,135,2.0,5.0,27,0.00,,,0.00,meteohub,2013-01-30 06:03:00,
2013-01-30 01:04:00,57.4,23.7,30.03,SE,135,2.0,5.0,27,0.00,,,0.00,meteohub,2013-01-30 06:04:00,
2013-01-30 01:05:00,57.4,23.7,30.03,SE,135,2.0,5.0,27,0.00,,,0.00,meteohub,2013-01-30 06:05:00,
2013-01-30 01:06:00,57.4,23.7,30.03,SE,135,2.0,4.0,27,0.00,,,0.00,meteohub,2013-01-30 06:06:00,
2013-01-30 01:08:00,57.4,23.7,30.03,SE,135,2.0,4.0,27,0.00,,,0.00,meteohub,2013-01-30 06:08:00,
2013-01-30 01:09:00,57.0,23.4,30.03,SE,135,3.0,4.0,27,0.00,,,0.00,meteohub,2013-01-30 06:09:00,
2013-01-30 01:11:00,57.0,24.3,30.03,SE,135,3.0,4.0,28,0.00,,,0.00,meteohub,2013-01-30 06:11:00,
2013-01-30 01:12:00,57.0,24.3,30.03,SE,135,3.0,4.0,28,0.00,,,0.00,meteohub,2013-01-30 06:12:00,
2013-01-30 01:14:00,57.0,23.4,30.02,East,90,4.0,4.0,27,0.00,,,0.00,meteohub,2013-01-30 06:14:00,
2013-01-30 01:15:00,57.0,23.4,30.03,East,90,4.0,4.0,27,0.00,,,0.00,meteohub,2013-01-30 06:15:00,
2013-01-30 01:17:00,57.0,23.4,30.03,SE,135,4.0,4.0,27,0.00,,,0.00,meteohub,2013-01-30 06:17:00,
2013-01-30 01:18:00,57.0,23.4,30.02,East,90,4.0,4.0,27,0.00,,,0.00,meteohub,2013-01-30 06:18:00,
2013-01-30 01:21:00,56.8,23.2,30.02,SE,135,4.0,4.0,27,0.00,,,0.00,meteohub,2013-01-30 06:21:00,
2013-01-30 01:22:00,56.8,23.2,30.02,East,90,4.0,4.0,27,0.00,,,0.00,meteohub,2013-01-30 06:22:00,
2013-01-30 01:23:00,56.8,23.2,30.02,SE,135,4.0,4.0,27,0.00,,,0.00,meteohub,2013-01-30 06:23:00,
2013-01-30 01:27:00,56.8,22.3,30.01,SE,135,4.0,4.0,26,0.00,,,0.00,meteohub,2013-01-30 06:27:00,
2013-01-30 01:28:00,56.8,22.3,30.02,SE,135,4.0,4.0,26,0.00,,,0.00,meteohub,2013-01-30 06:28:00,
2013-01-30 01:32:00,56.7,22.1,30.02,SE,135,3.0,7.0,26,0.00,,,0.00,meteohub,2013-01-30 06:32:00,
2013-01-30 01:33:00,56.7,22.1,30.01,SE,135,4.0,7.0,26,0.00,,,0.00,meteohub,2013-01-30 06:33:00,
2013-01-30 01:34:00,56.7,22.1,30.02,East,90,4.0,7.0,26,0.00,,,0.00,meteohub,2013-01-30 06:34:00,
2013-01-30 01:37:00,56.8,22.3,30.02,SE,135,4.0,7.0,26,0.00,,,0.00,meteohub,2013-01-30 06:37:00,
2013-01-30 01:39:00,56.8,21.4,30.02,SE,135,3.0,7.0,25,0.00,,,0.00,meteohub,2013-01-30 06:39:00,
2013-01-30 01:40:00,56.8,21.4,30.01,SE,135,4.0,7.0,25,0.00,,,0.00,meteohub,2013-01-30 06:40:00,
2013-01-30 01:43:00,56.8,21.4,30.01,SE,135,4.0,7.0,25,0.00,,,0.00,meteohub,2013-01-30 06:43:00,
2013-01-30 01:44:00,56.8,21.4,30.01,SE,135,2.0,7.0,25,0.00,,,0.00,meteohub,2013-01-30 06:44:00,
2013-01-30 01:45:00,56.8,21.4,30.01,SE,135,2.0,7.0,25,0.00,,,0.00,meteohub,2013-01-30 06:45:00,
2013-01-30 01:49:00,56.5,21.9,30.01,SE,135,3.0,4.0,26,0.00,,,0.00,meteohub,2013-01-30 06:49:00,
2013-01-30 01:50:00,56.5,21.9,30.01,East,90,4.0,4.0,26,0.00,,,0.00,meteohub,2013-01-30 06:50:00,
2013-01-30 01:54:00,56.5,21.9,30.01,East,90,2.0,4.0,26,0.00,,,0.00,meteohub,2013-01-30 06:54:00,
2013-01-30 01:55:00,56.5,21.9,30.01,East,90,4.0,4.0,26,0.00,,,0.00,meteohub,2013-01-30 06:55:00,
2013-01-30 01:57:00,56.3,21.9,30.01,SE,135,4.0,4.0,26,0.00,,,0.00,meteohub,2013-01-30 06:57:00,
2013-01-30 01:59:00,56.1,22.6,30.01,East,90,4.0,4.0,27,0.00,,,0.00,meteohub,2013-01-30 06:59:00,
2013-01-30 02:00:00,56.1,22.6,30.01,East,90,4.0,4.0,27,0.00,,,0.00,meteohub,2013-01-30 07:00:00,
2013-01-30 02:01:00,56.1,22.6,30.01,East,90,4.0,4.0,27,0.00,,,0.00,meteohub,2013-01-30 07:01:00,
2013-01-30 02:02:00,56.1,22.6,30.01,East,90,4.0,4.0,27,0.00,,,0.00,meteohub,2013-01-30 07:02:00,
2013-01-30 02:06:00,56.1,22.6,30.00,East,90,4.0,4.0,27,0.00,,,0.00,meteohub,2013-01-30 07:06:00,
2013-01-30 02:07:00,56.1,22.6,30.00,East,90,4.0,4.0,27,0.00,,,0.00,meteohub,2013-01-30 07:07:00,
2013-01-30 02:11:00,56.1,22.6,30.00,East,90,3.0,4.0,27,0.00,,,0.00,meteohub,2013-01-30 07:11:00,
2013-01-30 02:12:00,56.1,22.6,30.00,SE,135,4.0,4.0,27,0.00,,,0.00,meteohub,2013-01-30 07:12:00,
2013-01-30 02:16:00,55.8,22.3,29.99,SE,135,4.0,4.0,27,0.00,,,0.00,meteohub,2013-01-30 07:16:00,
2013-01-30 02:17:00,55.8,22.3,29.99,East,90,4.0,4.0,27,0.00,,,0.00,meteohub,2013-01-30 07:17:00,
2013-01-30 02:21:00,55.9,22.5,29.99,SE,135,4.0,4.0,27,0.00,,,0.00,meteohub,2013-01-30 07:21:00,
2013-01-30 02:22:00,55.9,21.6,29.99,SE,135,4.0,4.0,26,0.00,,,0.00,meteohub,2013-01-30 07:22:00,
2013-01-30 02:23:00,56.1,21.7,29.99,SE,135,4.0,4.0,26,0.00,,,0.00,meteohub,2013-01-30 07:23:00,
2013-01-30 02:26:00,56.1,21.7,29.99,SE,135,4.0,4.0,26,0.00,,,0.00,meteohub,2013-01-30 07:26:00,
2013-01-30 02:28:00,56.3,20.8,29.99,East,90,4.0,4.0,25,0.00,,,0.00,meteohub,2013-01-30 07:28:00,
2013-01-30 02:32:00,56.1,20.8,29.99,SE,135,4.0,5.0,25,0.00,,,0.00,meteohub,2013-01-30 07:32:00,
2013-01-30 02:33:00,56.1,20.8,29.99,WSW,248,3.0,5.0,25,0.00,,,0.00,meteohub,2013-01-30 07:33:00,
2013-01-30 02:35:00,56.3,20.8,29.99,ESE,113,4.0,5.0,25,0.00,,,0.00,meteohub,2013-01-30 07:35:00,
2013-01-30 02:37:00,56.5,20.1,29.99,SE,135,4.0,5.0,24,0.00,,,0.00,meteohub,2013-01-30 07:37:00,
2013-01-30 02:40:00,56.7,20.3,29.98,East,90,4.0,5.0,24,0.00,,,0.00,meteohub,2013-01-30 07:40:00,
2013-01-30 02:43:00,56.7,20.3,29.98,East,90,4.0,5.0,24,0.00,,,0.00,meteohub,2013-01-30 07:43:00,
2013-01-30 02:45:00,56.7,19.2,29.98,SE,135,4.0,4.0,23,0.00,,,0.00,meteohub,2013-01-30 07:45:00,
2013-01-30 02:46:00,56.7,19.2,29.98,East,90,4.0,4.0,23,0.00,,,0.00,meteohub,2013-01-30 07:46:00,
2013-01-30 02:48:00,56.7,19.2,29.98,ESE,113,4.0,4.0,23,0.00,,,0.00,meteohub,2013-01-30 07:48:00,
2013-01-30 02:50:00,56.7,19.2,29.98,East,90,3.0,5.0,23,0.00,,,0.00,meteohub,2013-01-30 07:50:00,
2013-01-30 02:52:00,56.8,19.4,29.97,East,90,4.0,5.0,23,0.00,,,0.00,meteohub,2013-01-30 07:52:00,
2013-01-30 02:53:00,56.8,18.3,29.98,East,90,4.0,5.0,22,0.00,,,0.00,meteohub,2013-01-30 07:53:00,
2013-01-30 02:54:00,56.8,19.4,29.97,East,90,4.0,5.0,23,0.00,,,0.00,meteohub,2013-01-30 07:54:00,
2013-01-30 02:56:00,56.8,19.4,29.97,SE,135,4.0,6.0,23,0.00,,,0.00,meteohub,2013-01-30 07:56:00,
2013-01-30 02:57:00,56.7,19.2,29.97,SE,135,3.0,6.0,23,0.00,,,0.00,meteohub,2013-01-30 07:57:00,
2013-01-30 02:59:00,56.7,19.2,29.97,SE,135,4.0,6.0,23,0.00,,,0.00,meteohub,2013-01-30 07:59:00,
2013-01-30 03:00:00,56.7,19.2,29.97,East,90,5.0,6.0,23,0.00,,,0.00,meteohub,2013-01-30 08:00:00,
2013-01-30 03:01:00,56.7,19.2,29.97,East,90,5.0,6.0,23,0.00,,,0.00,meteohub,2013-01-30 08:01:00,
2013-01-30 03:02:00,56.7,19.2,29.97,East,90,5.0,6.0,23,0.00,,,0.00,meteohub,2013-01-30 08:02:00,
2013-01-30 03:05:00,56.7,19.2,29.97,East,90,5.0,6.0,23,0.00,,,0.00,meteohub,2013-01-30 08:05:00,
2013-01-30 03:06:00,56.7,19.2,29.98,East,90,5.0,5.0,23,0.00,,,0.00,meteohub,2013-01-30 08:06:00,
2013-01-30 03:09:00,56.5,20.1,29.98,East,90,3.0,5.0,24,0.00,,,0.00,meteohub,2013-01-30 08:09:00,
2013-01-30 03:10:00,56.5,20.1,29.97,SE,135,3.0,5.0,24,0.00,,,0.00,meteohub,2013-01-30 08:10:00,
2013-01-30 03:12:00,56.3,19.9,29.97,SE,135,7.0,7.0,24,0.00,,,0.00,meteohub,2013-01-30 08:12:00,
2013-01-30 03:15:00,56.3,19.9,29.97,SE,135,4.0,5.0,24,0.00,,,0.00,meteohub,2013-01-30 08:15:00,
2013-01-30 03:16:00,56.3,19.9,29.97,East,90,5.0,7.0,24,0.00,,,0.00,meteohub,2013-01-30 08:16:00,
2013-01-30 03:17:00,56.3,19.9,29.96,SE,135,4.0,7.0,24,0.00,,,0.00,meteohub,2013-01-30 08:17:00,
2013-01-30 03:20:00,56.3,19.9,29.96,SE,135,4.0,7.0,24,0.00,,,0.00,meteohub,2013-01-30 08:20:00,
2013-01-30 03:23:00,56.3,19.9,29.96,East,90,4.0,7.0,24,0.00,,,0.00,meteohub,2013-01-30 08:23:00,
2013-01-30 03:25:00,56.5,20.1,29.96,East,90,4.0,7.0,24,0.00,,,0.00,meteohub,2013-01-30 08:25:00,
2013-01-30 03:26:00,56.3,19.9,29.96,East,90,4.0,7.0,24,0.00,,,0.00,meteohub,2013-01-30 08:26:00,
2013-01-30 03:28:00,56.3,19.9,29.96,East,90,3.0,7.0,24,0.00,,,0.00,meteohub,2013-01-30 08:28:00,
2013-01-30 03:30:00,56.3,19.9,29.96,SE,135,3.0,5.0,24,0.00,,,0.00,meteohub,2013-01-30 08:30:00,
2013-01-30 03:33:00,56.3,19.9,29.96,SE,135,4.0,5.0,24,0.00,,,0.00,meteohub,2013-01-30 08:33:00,
2013-01-30 03:34:00,56.3,19.9,29.96,East,90,4.0,5.0,24,0.00,,,0.00,meteohub,2013-01-30 08:34:00,
2013-01-30 03:35:00,56.3,19.9,29.96,South,180,4.0,4.0,24,0.00,,,0.00,meteohub,2013-01-30 08:35:00,
2013-01-30 03:39:00,56.3,19.9,29.96,East,90,4.0,4.0,24,0.00,,,0.00,meteohub,2013-01-30 08:39:00,
2013-01-30 03:40:00,56.3,19.9,29.96,SE,135,4.0,4.0,24,0.00,,,0.00,meteohub,2013-01-30 08:40:00,
2013-01-30 03:44:00,56.3,19.0,29.96,SE,135,4.0,5.0,23,0.00,,,0.00,meteohub,2013-01-30 08:44:00,
2013-01-30 03:45:00,56.3,19.0,29.96,SE,135,4.0,5.0,23,0.00,,,0.00,meteohub,2013-01-30 08:45:00,
2013-01-30 03:49:00,56.7,18.3,29.95,SE,135,5.0,5.0,22,0.00,,,0.00,meteohub,2013-01-30 08:49:00,
2013-01-30 03:50:00,56.7,18.3,29.95,SSE,158,4.0,5.0,22,0.00,,,0.00,meteohub,2013-01-30 08:50:00,
2013-01-30 03:51:00,56.7,18.3,29.95,East,90,4.0,5.0,22,0.00,,,0.00,meteohub,2013-01-30 08:51:00,
2013-01-30 03:54:00,56.7,18.3,29.95,SE,135,4.0,5.0,22,0.00,,,0.00,meteohub,2013-01-30 08:54:00,
2013-01-30 03:55:00,56.7,18.3,29.95,SE,135,4.0,5.0,22,0.00,,,0.00,meteohub,2013-01-30 08:55:00,
2013-01-30 03:56:00,56.7,18.3,29.95,East,90,4.0,5.0,22,0.00,,,0.00,meteohub,2013-01-30 08:56:00,
2013-01-30 04:01:00,56.5,18.1,29.95,East,90,4.0,5.0,22,0.00,,,0.00,meteohub,2013-01-30 09:01:00,
2013-01-30 04:02:00,56.5,18.1,29.95,East,90,4.0,5.0,22,0.00,,,0.00,meteohub,2013-01-30 09:02:00,
2013-01-30 04:06:00,56.5,18.1,29.95,East,90,4.0,4.0,22,0.00,,,0.00,meteohub,2013-01-30 09:06:00,
2013-01-30 04:07:00,56.5,18.1,29.94,SE,135,4.0,4.0,22,0.00,,,0.00,meteohub,2013-01-30 09:07:00,
2013-01-30 04:11:00,56.7,18.3,29.94,East,90,4.0,5.0,22,0.00,,,0.00,meteohub,2013-01-30 09:11:00,
2013-01-30 04:12:00,56.7,18.3,29.94,East,90,4.0,5.0,22,0.00,,,0.00,meteohub,2013-01-30 09:12:00,
2013-01-30 04:13:00,56.7,18.3,29.94,East,90,4.0,5.0,22,0.00,,,0.00,meteohub,2013-01-30 09:13:00,
2013-01-30 04:14:00,56.7,18.3,29.93,East,90,5.0,5.0,22,0.00,,,0.00,meteohub,2013-01-30 09:14:00,
2013-01-30 04:17:00,56.5,18.1,29.93,SE,135,4.0,5.0,22,0.00,,,0.00,meteohub,2013-01-30 09:17:00,
2013-01-30 04:18:00,56.5,18.1,29.93,SE,135,4.0,5.0,22,0.00,,,0.00,meteohub,2013-01-30 09:18:00,
2013-01-30 04:21:00,56.7,17.2,29.92,East,90,5.0,5.0,21,0.00,,,0.00,meteohub,2013-01-30 09:21:00,
2013-01-30 04:22:00,56.7,17.2,29.92,South,180,5.0,5.0,21,0.00,,,0.00,meteohub,2013-01-30 09:22:00,
2013-01-30 04:23:00,56.8,17.2,29.93,East,90,5.0,5.0,21,0.00,,,0.00,meteohub,2013-01-30 09:23:00,
2013-01-30 04:27:00,56.8,16.2,29.93,SE,135,6.0,6.0,20,0.00,,,0.00,meteohub,2013-01-30 09:27:00,
2013-01-30 04:28:00,56.8,16.2,29.93,SE,135,5.0,6.0,20,0.00,,,0.00,meteohub,2013-01-30 09:28:00,
2013-01-30 04:30:00,57.0,16.3,29.93,East,90,4.0,6.0,20,0.00,,,0.00,meteohub,2013-01-30 09:30:00,
2013-01-30 04:33:00,57.0,16.3,29.93,SE,135,4.0,7.0,20,0.00,,,0.00,meteohub,2013-01-30 09:33:00,
2013-01-30 04:34:00,57.0,16.3,29.93,SE,135,4.0,7.0,20,0.00,,,0.00,meteohub,2013-01-30 09:34:00,
2013-01-30 04:36:00,56.8,16.2,29.92,SE,135,6.0,7.0,20,0.00,,,0.00,meteohub,2013-01-30 09:36:00,
2013-01-30 04:38:00,57.0,15.1,29.93,NE,45,9.0,9.0,19,0.00,,,0.00,meteohub,2013-01-30 09:38:00,
2013-01-30 04:39:00,57.0,15.1,29.93,SE,135,4.0,7.0,19,0.00,,,0.00,meteohub,2013-01-30 09:39:00,
2013-01-30 04:40:00,57.0,15.1,29.92,South,180,6.0,7.0,19,0.00,,,0.00,meteohub,2013-01-30 09:40:00,
2013-01-30 04:41:00,57.0,15.1,29.92,East,90,5.0,9.0,19,0.00,,,0.00,meteohub,2013-01-30 09:41:00,
2013-01-30 04:43:00,56.8,15.1,29.92,East,90,5.0,9.0,19,0.00,,,0.00,meteohub,2013-01-30 09:43:00,
2013-01-30 04:44:00,56.8,15.1,29.92,East,90,5.0,9.0,19,0.00,,,0.00,meteohub,2013-01-30 09:44:00,
2013-01-30 04:46:00,56.8,15.1,29.91,SE,135,5.0,9.0,19,0.00,,,0.00,meteohub,2013-01-30 09:46:00,
2013-01-30 04:49:00,56.8,15.1,29.92,SE,135,4.0,9.0,19,0.00,,,0.00,meteohub,2013-01-30 09:49:00,
2013-01-30 04:50:00,56.8,15.1,29.91,SSE,158,5.0,9.0,19,0.00,,,0.00,meteohub,2013-01-30 09:50:00,
2013-01-30 04:51:00,56.8,15.1,29.91,SE,135,5.0,9.0,19,0.00,,,0.00,meteohub,2013-01-30 09:51:00,
2013-01-30 04:55:00,56.8,15.1,29.92,SE,135,4.0,9.0,19,0.00,,,0.00,meteohub,2013-01-30 09:55:00,
2013-01-30 04:56:00,56.8,15.1,29.91,East,90,4.0,6.0,19,0.00,,,0.00,meteohub,2013-01-30 09:56:00,
2013-01-30 05:00:00,56.7,14.9,29.91,SE,135,5.0,6.0,19,0.00,,,0.00,meteohub,2013-01-30 10:00:00,
2013-01-30 05:01:00,56.7,14.9,29.91,SE,135,5.0,6.0,19,0.00,,,0.00,meteohub,2013-01-30 10:01:00,
2013-01-30 05:02:00,56.7,14.9,29.91,SE,135,5.0,6.0,19,0.00,,,0.00,meteohub,2013-01-30 10:02:00,
2013-01-30 05:05:00,56.7,14.9,29.91,SE,135,5.0,6.0,19,0.00,,,0.00,meteohub,2013-01-30 10:05:00,
2013-01-30 05:06:00,56.7,14.9,29.91,SE,135,5.0,5.0,19,0.00,,,0.00,meteohub,2013-01-30 10:06:00,
2013-01-30 05:07:00,56.8,15.1,29.90,West,270,5.0,5.0,19,0.00,,,0.00,meteohub,2013-01-30 10:07:00,
2013-01-30 05:08:00,56.8,15.1,29.90,West,270,5.0,5.0,19,0.00,,,0.00,meteohub,2013-01-30 10:08:00,
2013-01-30 05:10:00,56.8,13.8,29.91,SE,135,6.0,6.0,18,0.00,,,0.00,meteohub,2013-01-30 10:10:00,
2013-01-30 05:12:00,57.0,14.0,29.91,SE,135,5.0,11.0,18,0.00,,,0.00,meteohub,2013-01-30 10:12:00,
2013-01-30 05:13:00,57.0,14.0,29.91,East,90,6.0,11.0,18,0.00,,,0.00,meteohub,2013-01-30 10:13:00,
2013-01-30 05:15:00,57.0,14.0,29.90,East,90,6.0,11.0,18,0.00,,,0.00,meteohub,2013-01-30 10:15:00,
2013-01-30 05:18:00,57.4,12.9,29.91,South,180,5.0,11.0,17,0.00,,,0.00,meteohub,2013-01-30 10:18:00,
2013-01-30 05:19:00,57.4,12.9,29.89,East,90,7.0,11.0,17,0.00,,,0.00,meteohub,2013-01-30 10:19:00,
2013-01-30 05:20:00,57.4,12.9,29.90,SE,135,8.0,11.0,17,0.00,,,0.00,meteohub,2013-01-30 10:20:00,
2013-01-30 05:24:00,57.2,12.7,29.90,SE,135,6.0,11.0,17,0.00,,,0.00,meteohub,2013-01-30 10:24:00,
2013-01-30 05:25:00,57.4,12.9,29.90,SE,135,7.0,11.0,17,0.00,,,0.00,meteohub,2013-01-30 10:25:00,
2013-01-30 05:28:00,57.4,12.9,29.89,SE,135,8.0,11.0,17,0.00,,,0.00,meteohub,2013-01-30 10:28:00,
2013-01-30 05:30:00,57.4,12.9,29.89,SE,135,7.0,11.0,17,0.00,,,0.00,meteohub,2013-01-30 10:30:00,
2013-01-30 05:31:00,57.2,14.0,29.89,East,90,8.0,11.0,18,0.00,,,0.00,meteohub,2013-01-30 10:31:00,
2013-01-30 05:33:00,57.4,12.9,29.88,SE,135,8.0,9.0,17,0.00,,,0.00,meteohub,2013-01-30 10:33:00,
2013-01-30 05:35:00,57.4,12.9,29.89,SE,135,5.0,9.0,17,0.00,,,0.00,meteohub,2013-01-30 10:35:00,
2013-01-30 05:36:00,57.4,12.9,29.88,SE,135,9.0,15.0,17,0.00,,,0.00,meteohub,2013-01-30 10:36:00,
2013-01-30 05:39:00,57.4,12.9,29.88,ESE,113,8.0,15.0,17,0.00,,,0.00,meteohub,2013-01-30 10:39:00,
2013-01-30 05:40:00,57.4,12.9,29.88,South,180,7.0,15.0,17,0.00,,,0.00,meteohub,2013-01-30 10:40:00,
2013-01-30 05:41:00,57.4,12.9,29.89,South,180,5.0,15.0,17,0.00,,,0.00,meteohub,2013-01-30 10:41:00,
2013-01-30 05:42:00,57.4,12.9,29.88,South,180,8.0,15.0,17,0.00,,,0.00,meteohub,2013-01-30 10:42:00,
2013-01-30 05:44:00,57.6,13.1,29.88,East,90,7.0,15.0,17,0.00,,,0.00,meteohub,2013-01-30 10:44:00,
2013-01-30 05:46:00,57.6,13.1,29.88,SE,135,6.0,15.0,17,0.00,,,0.00,meteohub,2013-01-30 10:46:00,
2013-01-30 05:47:00,57.6,13.1,29.88,SE,135,8.0,15.0,17,0.00,,,0.00,meteohub,2013-01-30 10:47:00,
2013-01-30 05:50:00,57.6,13.1,29.88,East,90,8.0,15.0,17,0.00,,,0.00,meteohub,2013-01-30 10:50:00,
2013-01-30 05:51:00,57.4,12.9,29.88,SE,135,11.0,11.0,17,0.00,,,0.00,meteohub,2013-01-30 10:51:00,
2013-01-30 05:52:00,57.4,14.2,29.88,SE,135,7.0,9.0,18,0.00,,,0.00,meteohub,2013-01-30 10:52:00,
2013-01-30 05:55:00,57.4,14.2,29.88,SE,135,7.0,11.0,18,0.00,,,0.00,meteohub,2013-01-30 10:55:00,
2013-01-30 05:57:00,57.4,14.2,29.89,East,90,8.0,11.0,18,0.00,,,0.00,meteohub,2013-01-30 10:57:00,
2013-01-30 05:58:00,57.2,14.0,29.89,SE,135,8.0,11.0,18,0.00,,,0.00,meteohub,2013-01-30 10:58:00,
2013-01-30 05:59:00,57.2,14.0,29.89,South,180,11.0,11.0,18,0.00,,,0.00,meteohub,2013-01-30 10:59:00,
2013-01-30 06:01:00,57.2,14.0,29.89,East,90,8.0,11.0,18,0.00,,,0.00,meteohub,2013-01-30 11:01:00,
2013-01-30 06:02:00,57.2,14.0,29.88,East,90,8.0,11.0,18,0.00,,,0.00,meteohub,2013-01-30 11:02:00,
2013-01-30 06:03:00,57.2,14.0,29.89,East,90,8.0,11.0,18,0.00,,,0.00,meteohub,2013-01-30 11:03:00,
2013-01-30 06:04:00,57.2,14.0,29.89,East,90,8.0,11.0,18,0.00,,,0.00,meteohub,2013-01-30 11:04:00,
2013-01-30 06:07:00,57.2,14.0,29.89,East,90,8.0,11.0,18,0.00,,,0.00,meteohub,2013-01-30 11:07:00,
2013-01-30 06:08:00,57.2,15.3,29.88,SE,135,6.0,11.0,19,0.00,,,0.00,meteohub,2013-01-30 11:08:00,
2013-01-30 06:09:00,57.0,15.1,29.88,SE,135,7.0,11.0,19,0.00,,,0.00,meteohub,2013-01-30 11:09:00,
2013-01-30 06:10:00,57.0,16.3,29.88,East,90,7.0,11.0,20,0.00,,,0.00,meteohub,2013-01-30 11:10:00,
2013-01-30 06:12:00,56.8,16.2,29.87,SE,135,6.0,11.0,20,0.00,,,0.00,meteohub,2013-01-30 11:12:00,
2013-01-30 06:14:00,56.8,17.2,29.88,SE,135,8.0,11.0,21,0.00,,,0.00,meteohub,2013-01-30 11:14:00,
2013-01-30 06:15:00,56.8,17.2,29.88,SE,135,8.0,11.0,21,0.00,,,0.00,meteohub,2013-01-30 11:15:00,
2013-01-30 06:16:00,56.8,17.2,29.88,South,180,8.0,11.0,21,0.00,,,0.00,meteohub,2013-01-30 11:16:00,
2013-01-30 06:17:00,57.0,16.3,29.88,SE,135,9.0,11.0,20,0.00,,,0.00,meteohub,2013-01-30 11:17:00,
2013-01-30 06:19:00,57.2,16.5,29.88,South,180,6.0,11.0,20,0.00,,,0.00,meteohub,2013-01-30 11:19:00,
2013-01-30 06:20:00,57.0,16.3,29.88,SE,135,8.0,11.0,20,0.00,,,0.00,meteohub,2013-01-30 11:20:00,
2013-01-30 06:21:00,57.2,16.5,29.88,SE,135,8.0,11.0,20,0.00,,,0.00,meteohub,2013-01-30 11:21:00,
2013-01-30 06:23:00,57.2,16.5,29.87,SE,135,8.0,11.0,20,0.00,,,0.00,meteohub,2013-01-30 11:23:00,
2013-01-30 06:25:00,57.2,16.5,29.87,South,180,10.0,11.0,20,0.00,,,0.00,meteohub,2013-01-30 11:25:00,
2013-01-30 06:26:00,57.2,16.5,29.87,SE,135,8.0,11.0,20,0.00,,,0.00,meteohub,2013-01-30 11:26:00,
2013-01-30 06:27:00,57.2,17.6,29.86,East,90,7.0,11.0,21,0.00,,,0.00,meteohub,2013-01-30 11:27:00,
2013-01-30 06:28:00,57.2,17.6,29.86,East,90,8.0,11.0,21,0.00,,,0.00,meteohub,2013-01-30 11:28:00,
2013-01-30 06:31:00,57.2,17.6,29.86,SE,135,6.0,11.0,21,0.00,,,0.00,meteohub,2013-01-30 11:31:00,
2013-01-30 06:32:00,57.2,17.6,29.86,SE,135,6.0,11.0,21,0.00,,,0.00,meteohub,2013-01-30 11:32:00,
2013-01-30 06:34:00,57.2,17.6,29.86,South,180,11.0,11.0,21,0.00,,,0.00,meteohub,2013-01-30 11:34:00,
2013-01-30 06:36:00,57.2,17.6,29.86,SSE,158,6.0,11.0,21,0.00,,,0.00,meteohub,2013-01-30 11:36:00,
2013-01-30 06:37:00,57.2,17.6,29.86,SE,135,6.0,11.0,21,0.00,,,0.00,meteohub,2013-01-30 11:37:00,
2013-01-30 06:39:00,57.2,18.7,29.86,South,180,11.0,11.0,22,0.00,,,0.00,meteohub,2013-01-30 11:39:00,
2013-01-30 06:41:00,57.4,17.8,29.86,SE,135,6.0,11.0,21,0.00,,,0.00,meteohub,2013-01-30 11:41:00,
2013-01-30 06:43:00,57.4,18.9,29.86,SE,135,5.0,11.0,22,0.00,,,0.00,meteohub,2013-01-30 11:43:00,
2013-01-30 06:44:00,57.2,18.7,29.86,SE,135,5.0,11.0,22,0.00,,,0.00,meteohub,2013-01-30 11:44:00,
2013-01-30 06:46:00,57.2,18.7,29.85,SE,135,7.0,11.0,22,0.00,,,0.00,meteohub,2013-01-30 11:46:00,
2013-01-30 06:47:00,57.2,19.8,29.85,South,180,8.0,11.0,23,0.00,,,0.00,meteohub,2013-01-30 11:47:00,
2013-01-30 06:49:00,57.2,18.7,29.85,SE,135,7.0,11.0,22,0.00,,,0.00,meteohub,2013-01-30 11:49:00,
2013-01-30 06:50:00,57.4,18.9,29.85,SE,135,9.0,11.0,22,0.00,,,0.00,meteohub,2013-01-30 11:50:00,
2013-01-30 06:51:00,57.4,19.9,29.85,East,90,10.0,11.0,23,0.00,,,0.00,meteohub,2013-01-30 11:51:00,
2013-01-30 06:52:00,57.4,19.9,29.84,SSE,158,7.0,11.0,23,0.00,,,0.00,meteohub,2013-01-30 11:52:00,
2013-01-30 06:54:00,57.4,19.9,29.85,SE,135,7.0,11.0,23,0.00,,,0.00,meteohub,2013-01-30 11:54:00,
2013-01-30 06:55:00,57.4,19.9,29.85,SE,135,7.0,11.0,23,0.00,,,0.00,meteohub,2013-01-30 11:55:00,
2013-01-30 06:57:00,57.4,19.9,29.85,SE,135,7.0,11.0,23,0.00,,,0.00,meteohub,2013-01-30 11:57:00,
2013-01-30 06:58:00,57.4,19.9,29.84,East,90,8.0,11.0,23,0.00,,,0.00,meteohub,2013-01-30 11:58:00,
2013-01-30 07:00:00,57.4,19.9,29.84,SE,135,6.0,11.0,23,0.00,,,0.00,meteohub,2013-01-30 12:00:00,
2013-01-30 07:01:00,57.4,19.9,29.84,SE,135,6.0,11.0,23,0.00,,,0.00,meteohub,2013-01-30 12:01:00,
2013-01-30 07:03:00,57.4,19.9,29.85,SE,135,6.0,11.0,23,0.00,,,0.00,meteohub,2013-01-30 12:03:00,
2013-01-30 07:05:00,57.4,19.9,29.85,SE,135,6.0,11.0,23,0.00,,,0.00,meteohub,2013-01-30 12:05:00,
2013-01-30 07:06:00,57.4,19.9,29.85,SE,135,6.0,10.0,23,0.00,,,0.00,meteohub,2013-01-30 12:06:00,
2013-01-30 07:09:00,57.6,19.9,29.85,SE,135,12.0,12.0,23,0.00,,,0.00,meteohub,2013-01-30 12:09:00,
2013-01-30 07:10:00,57.7,20.1,29.84,SE,135,16.0,16.0,23,0.00,,,0.00,meteohub,2013-01-30 12:10:00,
2013-01-30 07:11:00,57.7,20.1,29.84,SE,135,8.0,16.0,23,0.00,,,0.00,meteohub,2013-01-30 12:11:00,
2013-01-30 07:14:00,57.7,20.1,29.84,South,180,5.0,16.0,23,0.00,,,0.00,meteohub,2013-01-30 12:14:00,
2013-01-30 07:16:00,57.7,21.2,29.84,East,90,9.0,16.0,24,0.00,,,0.00,meteohub,2013-01-30 12:16:00,
2013-01-30 07:17:00,57.7,21.2,29.84,SE,135,11.0,16.0,24,0.00,,,0.00,meteohub,2013-01-30 12:17:00,
2013-01-30 07:19:00,57.9,21.4,29.84,SE,135,7.0,16.0,24,0.00,,,0.00,meteohub,2013-01-30 12:19:00,
2013-01-30 07:21:00,58.1,21.6,29.84,East,90,11.0,19.0,24,0.00,,,0.00,meteohub,2013-01-30 12:21:00,
2013-01-30 07:22:00,58.1,21.6,29.83,SE,135,15.0,19.0,24,0.00,,,0.00,meteohub,2013-01-30 12:22:00,
2013-01-30 07:24:00,58.3,21.6,29.83,South,180,7.0,19.0,24,0.00,,,0.00,meteohub,2013-01-30 12:24:00,
2013-01-30 07:27:00,58.5,20.8,29.84,SE,135,11.0,19.0,23,0.00,,,0.00,meteohub,2013-01-30 12:27:00,
2013-01-30 07:28:00,58.5,20.8,29.84,SE,135,11.0,19.0,23,0.00,,,0.00,meteohub,2013-01-30 12:28:00,
2013-01-30 07:30:00,58.5,20.8,29.83,SE,135,9.0,19.0,23,0.00,,,0.00,meteohub,2013-01-30 12:30:00,
2013-01-30 07:33:00,58.5,20.8,29.83,SE,135,8.0,19.0,23,0.00,,,0.00,meteohub,2013-01-30 12:33:00,
2013-01-30 07:34:00,58.5,20.8,29.83,SE,135,8.0,19.0,23,0.00,,,0.00,meteohub,2013-01-30 12:34:00,
2013-01-30 07:36:00,58.6,21.0,29.83,East,90,8.0,15.0,23,0.00,,,0.00,meteohub,2013-01-30 12:36:00,
2013-01-30 07:38:00,58.6,21.0,29.82,SE,135,9.0,15.0,23,0.00,,,0.00,meteohub,2013-01-30 12:38:00,
2013-01-30 07:39:00,58.5,20.8,29.83,SE,135,11.0,15.0,23,0.00,,,0.00,meteohub,2013-01-30 12:39:00,
2013-01-30 07:40:00,58.6,21.9,29.83,SE,135,8.0,15.0,24,0.00,,,0.00,meteohub,2013-01-30 12:40:00,
2013-01-30 07:41:00,58.5,21.7,29.82,SE,135,10.0,11.0,24,0.00,,,0.00,meteohub,2013-01-30 12:41:00,
2013-01-30 07:43:00,58.6,21.9,29.82,SE,135,10.0,11.0,24,0.00,,,0.00,meteohub,2013-01-30 12:43:00,
2013-01-30 07:45:00,58.6,21.9,29.82,SE,135,5.0,11.0,24,0.00,,,0.00,meteohub,2013-01-30 12:45:00,
2013-01-30 07:46:00,58.6,21.9,29.83,SE,135,8.0,19.0,24,0.00,,,0.00,meteohub,2013-01-30 12:46:00,
2013-01-30 07:49:00,58.6,21.9,29.82,South,180,11.0,19.0,24,0.00,,,0.00,meteohub,2013-01-30 12:49:00,
2013-01-30 07:50:00,58.6,22.8,29.83,SE,135,7.0,19.0,25,0.00,,,0.00,meteohub,2013-01-30 12:50:00,
2013-01-30 07:51:00,58.6,22.8,29.82,South,180,8.0,19.0,25,0.00,,,0.00,meteohub,2013-01-30 12:51:00,
2013-01-30 07:54:00,58.6,22.8,29.82,East,90,11.0,19.0,25,0.00,,,0.00,meteohub,2013-01-30 12:54:00,
2013-01-30 07:55:00,58.6,22.8,29.81,East,90,8.0,19.0,25,0.00,,,0.00,meteohub,2013-01-30 12:55:00,
2013-01-30 07:56:00,58.6,22.8,29.82,South,180,8.0,19.0,25,0.00,,,0.00,meteohub,2013-01-30 12:56:00,
2013-01-30 07:59:00,58.8,22.1,29.81,SE,135,6.0,19.0,24,0.00,,,0.00,meteohub,2013-01-30 12:59:00,
2013-01-30 08:00:00,58.8,22.1,29.81,SE,135,7.0,19.0,24,0.00,,,0.00,meteohub,2013-01-30 13:00:00,
2013-01-30 08:01:00,58.8,22.1,29.81,SE,135,7.0,15.0,24,0.00,,,0.00,meteohub,2013-01-30 13:01:00,
2013-01-30 08:04:00,58.8,23.0,29.81,South,180,12.0,15.0,25,0.00,,,0.00,meteohub,2013-01-30 13:04:00,
2013-01-30 08:06:00,58.8,23.0,29.81,South,180,10.0,15.0,25,0.00,,,0.00,meteohub,2013-01-30 13:06:00,
2013-01-30 08:07:00,58.8,23.0,29.81,SE,135,8.0,15.0,25,0.00,,,0.00,meteohub,2013-01-30 13:07:00,
2013-01-30 08:10:00,58.8,23.0,29.81,SE,135,8.0,15.0,25,0.00,,,0.00,meteohub,2013-01-30 13:10:00,
2013-01-30 08:12:00,58.8,23.0,29.81,SE,135,7.0,15.0,25,0.00,,,0.00,meteohub,2013-01-30 13:12:00,
2013-01-30 08:14:00,59.0,23.2,29.81,SE,135,8.0,15.0,25,0.00,,,0.00,meteohub,2013-01-30 13:14:00,
2013-01-30 08:17:00,59.0,23.2,29.81,SE,135,5.0,12.0,25,0.00,,,0.00,meteohub,2013-01-30 13:17:00,
2013-01-30 08:18:00,59.0,23.2,29.81,SE,135,5.0,12.0,25,0.00,,,0.00,meteohub,2013-01-30 13:18:00,
2013-01-30 08:19:00,59.0,23.2,29.81,SE,135,5.0,12.0,25,0.00,,,0.00,meteohub,2013-01-30 13:19:00,
2013-01-30 08:22:00,59.0,23.2,29.81,SE,135,5.0,12.0,25,0.00,,,0.00,meteohub,2013-01-30 13:22:00,
2013-01-30 08:23:00,59.0,23.2,29.81,SE,135,5.0,12.0,25,0.00,,,0.00,meteohub,2013-01-30 13:23:00,
2013-01-30 08:24:00,59.2,23.4,29.81,SE,135,8.0,12.0,25,0.00,,,0.00,meteohub,2013-01-30 13:24:00,
2013-01-30 08:28:00,59.4,22.6,29.80,SE,135,7.0,9.0,24,0.00,,,0.00,meteohub,2013-01-30 13:28:00,
2013-01-30 08:30:00,59.4,22.6,29.80,ESE,113,6.0,9.0,24,0.00,,,0.00,meteohub,2013-01-30 13:30:00,
2013-01-30 08:33:00,59.4,23.5,29.81,SE,135,5.0,15.0,25,0.00,,,0.00,meteohub,2013-01-30 13:33:00,
2013-01-30 08:35:00,59.4,23.5,29.80,South,180,13.0,15.0,25,0.00,,,0.00,meteohub,2013-01-30 13:35:00,
2013-01-30 08:38:00,59.5,23.7,29.80,SE,135,13.0,15.0,25,0.00,,,0.00,meteohub,2013-01-30 13:38:00,
2013-01-30 08:39:00,59.5,23.7,29.80,SE,135,13.0,15.0,25,0.00,,,0.00,meteohub,2013-01-30 13:39:00,
2013-01-30 08:40:00,59.5,23.7,29.80,SE,135,8.0,15.0,25,0.00,,,0.00,meteohub,2013-01-30 13:40:00,
2013-01-30 08:41:00,59.5,23.7,29.81,SE,135,7.0,15.0,25,0.00,,,0.00,meteohub,2013-01-30 13:41:00,
2013-01-30 08:44:00,59.5,22.6,29.80,SE,135,11.0,15.0,24,0.00,,,0.00,meteohub,2013-01-30 13:44:00,
2013-01-30 08:45:00,59.5,22.6,29.80,South,180,7.0,15.0,24,0.00,,,0.00,meteohub,2013-01-30 13:45:00,
2013-01-30 08:46:00,59.5,23.7,29.80,SE,135,5.0,15.0,25,0.00,,,0.00,meteohub,2013-01-30 13:46:00,
2013-01-30 08:49:00,59.5,23.7,29.80,SE,135,8.0,15.0,25,0.00,,,0.00,meteohub,2013-01-30 13:49:00,
2013-01-30 08:50:00,59.5,23.7,29.80,SSE,158,7.0,15.0,25,0.00,,,0.00,meteohub,2013-01-30 13:50:00,
2013-01-30 08:51:00,59.5,23.7,29.80,SE,135,11.0,15.0,25,0.00,,,0.00,meteohub,2013-01-30 13:51:00,
2013-01-30 08:55:00,59.7,23.9,29.80,South,180,11.0,15.0,25,0.00,,,0.00,meteohub,2013-01-30 13:55:00,
2013-01-30 08:57:00,59.9,23.0,29.80,SE,135,9.0,12.0,24,0.00,,,0.00,meteohub,2013-01-30 13:57:00,
2013-01-30 09:00:00,59.9,23.0,29.80,SE,135,7.0,12.0,24,0.00,,,0.00,meteohub,2013-01-30 14:00:00,
2013-01-30 09:01:00,59.9,23.0,29.80,SE,135,7.0,14.0,24,0.00,,,0.00,meteohub,2013-01-30 14:01:00,
2013-01-30 09:03:00,59.9,23.0,29.79,SE,135,7.0,14.0,24,0.00,,,0.00,meteohub,2013-01-30 14:03:00,
2013-01-30 09:05:00,59.9,23.0,29.78,SE,135,7.0,14.0,24,0.00,,,0.00,meteohub,2013-01-30 14:05:00,
2013-01-30 09:06:00,59.9,23.0,29.79,SE,135,7.0,14.0,24,0.00,,,0.00,meteohub,2013-01-30 14:06:00,
2013-01-30 09:08:00,60.1,23.2,29.79,South,180,11.0,14.0,24,0.00,,,0.00,meteohub,2013-01-30 14:08:00,
2013-01-30 09:11:00,60.1,24.1,29.78,South,180,9.0,14.0,25,0.00,,,0.00,meteohub,2013-01-30 14:11:00,
2013-01-30 09:12:00,60.1,24.1,29.78,South,180,11.0,14.0,25,0.00,,,0.00,meteohub,2013-01-30 14:12:00,
2013-01-30 09:13:00,60.1,24.1,29.78,South,180,14.0,14.0,25,0.00,,,0.00,meteohub,2013-01-30 14:13:00,
2013-01-30 09:16:00,60.4,23.5,29.78,SE,135,12.0,14.0,24,0.00,,,0.00,meteohub,2013-01-30 14:16:00,
2013-01-30 09:17:00,60.4,23.5,29.78,SE,135,17.0,17.0,24,0.00,,,0.00,meteohub,2013-01-30 14:17:00,
2013-01-30 09:18:00,60.4,23.5,29.78,South,180,9.0,14.0,24,0.00,,,0.00,meteohub,2013-01-30 14:18:00,
2013-01-30 09:21:00,60.4,23.5,29.78,SE,135,17.0,17.0,24,0.00,,,0.00,meteohub,2013-01-30 14:21:00,
2013-01-30 09:23:00,60.6,22.6,29.78,SE,135,8.0,17.0,23,0.00,,,0.00,meteohub,2013-01-30 14:23:00,
2013-01-30 09:24:00,60.6,22.6,29.78,SE,135,8.0,17.0,23,0.00,,,0.00,meteohub,2013-01-30 14:24:00,
2013-01-30 09:27:00,60.6,22.6,29.78,South,180,9.0,17.0,23,0.00,,,0.00,meteohub,2013-01-30 14:27:00,
2013-01-30 09:28:00,60.6,22.6,29.78,SE,135,11.0,17.0,23,0.00,,,0.00,meteohub,2013-01-30 14:28:00,
2013-01-30 09:30:00,60.6,22.6,29.78,WSW,248,11.0,17.0,23,0.00,,,0.00,meteohub,2013-01-30 14:30:00,
2013-01-30 09:33:00,60.8,21.7,29.78,South,180,9.0,17.0,22,0.00,,,0.00,meteohub,2013-01-30 14:33:00,
2013-01-30 09:35:00,61.0,22.8,29.78,East,90,9.0,17.0,23,0.00,,,0.00,meteohub,2013-01-30 14:35:00,
2013-01-30 09:38:00,61.0,22.8,29.77,South,180,14.0,17.0,23,0.00,,,0.00,meteohub,2013-01-30 14:38:00,
2013-01-30 09:40:00,61.0,22.8,29.77,SE,135,8.0,17.0,23,0.00,,,0.00,meteohub,2013-01-30 14:40:00,
2013-01-30 09:41:00,61.0,22.8,29.77,SE,135,8.0,16.0,23,0.00,,,0.00,meteohub,2013-01-30 14:41:00,
2013-01-30 09:43:00,61.0,22.8,29.77,SE,135,12.0,16.0,23,0.00,,,0.00,meteohub,2013-01-30 14:43:00,
2013-01-30 09:45:00,61.0,22.8,29.77,SE,135,8.0,16.0,23,0.00,,,0.00,meteohub,2013-01-30 14:45:00,
2013-01-30 09:46:00,61.0,22.8,29.76,South,180,11.0,16.0,23,0.00,,,0.00,meteohub,2013-01-30 14:46:00,
2013-01-30 09:49:00,61.0,22.8,29.77,South,180,8.0,16.0,23,0.00,,,0.00,meteohub,2013-01-30 14:49:00,
2013-01-30 09:51:00,61.2,23.0,29.76,SE,135,12.0,14.0,23,0.00,,,0.00,meteohub,2013-01-30 14:51:00,
2013-01-30 09:52:00,61.2,23.0,29.76,SE,135,12.0,14.0,23,0.00,,,0.00,meteohub,2013-01-30 14:52:00,
2013-01-30 09:54:00,61.2,21.9,29.76,East,90,13.0,14.0,22,0.00,,,0.00,meteohub,2013-01-30 14:54:00,
2013-01-30 09:56:00,61.3,22.1,29.75,South,180,8.0,15.0,22,0.00,,,0.00,meteohub,2013-01-30 14:56:00,
2013-01-30 09:57:00,61.5,22.3,29.75,SE,135,18.0,18.0,22,0.00,,,0.00,meteohub,2013-01-30 14:57:00,
2013-01-30 09:58:00,61.5,22.3,29.75,South,180,11.0,15.0,22,0.00,,,0.00,meteohub,2013-01-30 14:58:00,
2013-01-30 09:59:00,61.7,21.4,29.76,East,90,13.0,15.0,21,0.00,,,0.00,meteohub,2013-01-30 14:59:00,
2013-01-30 10:01:00,61.7,21.4,29.75,East,90,13.0,18.0,21,0.00,,,0.00,meteohub,2013-01-30 15:01:00,
2013-01-30 10:02:00,61.7,21.4,29.75,East,90,13.0,18.0,21,0.00,,,0.00,meteohub,2013-01-30 15:02:00,
2013-01-30 10:03:00,61.7,21.4,29.75,East,90,13.0,18.0,21,0.00,,,0.00,meteohub,2013-01-30 15:03:00,
2013-01-30 10:04:00,61.7,21.4,29.75,East,90,13.0,18.0,21,0.00,,,0.00,meteohub,2013-01-30 15:04:00,
2013-01-30 10:07:00,61.7,21.4,29.75,East,90,13.0,18.0,21,0.00,,,0.00,meteohub,2013-01-30 15:07:00,
2013-01-30 10:09:00,62.4,20.8,29.75,East,90,11.0,18.0,20,0.00,,,0.00,meteohub,2013-01-30 15:09:00,
2013-01-30 10:12:00,62.8,18.7,29.75,East,90,13.0,18.0,18,0.00,,,0.00,meteohub,2013-01-30 15:12:00,
2013-01-30 10:13:00,63.0,17.4,29.75,SE,135,21.0,21.0,17,0.00,,,0.00,meteohub,2013-01-30 15:13:00,
2013-01-30 10:14:00,63.0,18.9,29.74,SE,135,9.0,18.0,18,0.00,,,0.00,meteohub,2013-01-30 15:14:00,
2013-01-30 10:18:00,63.3,16.3,29.74,SE,135,16.0,16.0,16,0.00,,,0.00,meteohub,2013-01-30 15:18:00,
2013-01-30 10:19:00,63.3,16.3,29.74,East,90,15.0,15.0,16,0.00,,,0.00,meteohub,2013-01-30 15:19:00,
2013-01-30 10:20:00,63.5,16.5,29.74,NE,45,12.0,15.0,16,0.00,,,0.00,meteohub,2013-01-30 15:20:00,
2013-01-30 10:21:00,63.7,16.7,29.74,SE,135,10.0,21.0,16,0.00,,,0.00,meteohub,2013-01-30 15:21:00,
2013-01-30 10:24:00,64.4,14.2,29.74,WSW,248,16.0,21.0,14,0.00,,,0.00,meteohub,2013-01-30 15:24:00,
2013-01-30 10:26:00,64.6,14.4,29.74,SE,135,8.0,23.0,14,0.00,,,0.00,meteohub,2013-01-30 15:26:00,
2013-01-30 10:27:00,64.8,12.7,29.74,South,180,14.0,23.0,13,0.00,,,0.00,meteohub,2013-01-30 15:27:00,
2013-01-30 10:30:00,64.8,14.4,29.74,SE,135,13.0,23.0,14,0.00,,,0.00,meteohub,2013-01-30 15:30:00,
2013-01-30 10:31:00,64.8,14.4,29.73,West,270,15.0,23.0,14,0.00,,,0.00,meteohub,2013-01-30 15:31:00,
2013-01-30 10:32:00,64.6,12.6,29.73,SE,135,13.0,23.0,13,0.00,,,0.00,meteohub,2013-01-30 15:32:00,
2013-01-30 10:36:00,64.2,15.6,29.73,WSW,248,9.0,22.0,15,0.00,,,0.00,meteohub,2013-01-30 15:36:00,
2013-01-30 10:37:00,64.0,15.4,29.73,East,90,11.0,22.0,15,0.00,,,0.00,meteohub,2013-01-30 15:37:00,
2013-01-30 10:41:00,63.3,17.8,29.72,South,180,13.0,22.0,17,0.00,,,0.00,meteohub,2013-01-30 15:41:00,
2013-01-30 10:42:00,63.3,17.8,29.72,South,180,11.0,22.0,17,0.00,,,0.00,meteohub,2013-01-30 15:42:00,
2013-01-30 10:43:00,63.3,17.8,29.71,South,180,15.0,22.0,17,0.00,,,0.00,meteohub,2013-01-30 15:43:00,
2013-01-30 10:47:00,63.1,17.6,29.72,East,90,11.0,22.0,17,0.00,,,0.00,meteohub,2013-01-30 15:47:00,
2013-01-30 10:48:00,63.1,18.9,29.71,SE,135,10.0,22.0,18,0.00,,,0.00,meteohub,2013-01-30 15:48:00,
2013-01-30 10:51:00,63.1,17.6,29.72,South,180,21.0,21.0,17,0.00,,,0.00,meteohub,2013-01-30 15:51:00,
2013-01-30 10:53:00,63.1,18.9,29.71,SE,135,7.0,18.0,18,0.00,,,0.00,meteohub,2013-01-30 15:53:00,
2013-01-30 10:54:00,63.3,17.8,29.71,NW,315,18.0,18.0,17,0.00,,,0.00,meteohub,2013-01-30 15:54:00,
2013-01-30 10:57:00,63.5,18.0,29.70,South,180,17.0,21.0,17,0.00,,,0.00,meteohub,2013-01-30 15:57:00,
2013-01-30 10:58:00,63.5,18.0,29.71,South,180,12.0,21.0,17,0.00,,,0.00,meteohub,2013-01-30 15:58:00,
2013-01-30 10:59:00,63.7,18.0,29.70,SE,135,13.0,21.0,17,0.00,,,0.00,meteohub,2013-01-30 15:59:00,
2013-01-30 11:02:00,63.7,18.0,29.70,South,180,12.0,21.0,17,0.00,,,0.00,meteohub,2013-01-30 16:02:00,
2013-01-30 11:03:00,63.7,18.0,29.71,South,180,12.0,21.0,17,0.00,,,0.00,meteohub,2013-01-30 16:03:00,
2013-01-30 11:04:00,63.9,18.1,29.72,WSW,248,8.0,21.0,17,0.00,,,0.00,meteohub,2013-01-30 16:04:00,
2013-01-30 11:07:00,63.7,20.7,29.74,East,90,19.0,21.0,19,0.00,,,0.00,meteohub,2013-01-30 16:07:00,
2013-01-30 11:09:00,63.3,25.9,29.77,WSW,248,18.0,21.0,24,0.00,,,0.00,meteohub,2013-01-30 16:09:00,
2013-01-30 11:10:00,62.2,31.3,29.79,WSW,248,14.0,21.0,31,0.00,,,0.01,meteohub,2013-01-30 16:10:00,
2013-01-30 11:12:00,60.8,35.1,29.79,South,180,21.0,21.0,38,0.01,,,0.01,meteohub,2013-01-30 16:12:00,
2013-01-30 11:14:00,60.3,36.5,29.79,South,180,17.0,19.0,41,0.01,,,0.01,meteohub,2013-01-30 16:14:00,
2013-01-30 11:15:00,59.9,36.7,29.79,WSW,248,12.0,19.0,42,0.01,,,0.06,meteohub,2013-01-30 16:15:00,
2013-01-30 11:17:00,59.7,37.2,29.79,WSW,248,15.0,21.0,43,0.06,,,0.06,meteohub,2013-01-30 16:17:00,
2013-01-30 11:19:00,59.7,37.2,29.79,WSW,248,15.0,21.0,43,0.06,,,0.06,meteohub,2013-01-30 16:19:00,
2013-01-30 11:20:00,59.0,38.3,29.79,WSW,248,17.0,21.0,46,0.06,,,0.06,meteohub,2013-01-30 16:20:00,
2013-01-30 11:21:00,58.8,38.1,29.79,West,270,30.0,30.0,46,0.06,,,0.06,meteohub,2013-01-30 16:21:00,
2013-01-30 11:23:00,58.6,37.9,29.79,West,270,23.0,23.0,46,0.06,,,0.06,meteohub,2013-01-30 16:23:00,
2013-01-30 11:24:00,58.5,37.8,29.80,NW,315,15.0,21.0,46,0.06,,,0.06,meteohub,2013-01-30 16:24:00,
2013-01-30 11:25:00,58.5,38.3,29.79,North,0,7.0,30.0,47,0.07,,,0.07,meteohub,2013-01-30 16:25:00,
2013-01-30 11:26:00,58.5,38.3,29.80,WSW,248,13.0,30.0,47,0.07,,,0.07,meteohub,2013-01-30 16:26:00,
2013-01-30 11:28:00,58.3,38.7,29.79,North,0,17.0,30.0,48,0.07,,,0.07,meteohub,2013-01-30 16:28:00,
2013-01-30 11:29:00,58.3,38.7,29.80,West,270,11.0,30.0,48,0.07,,,0.07,meteohub,2013-01-30 16:29:00,
2013-01-30 11:31:00,58.3,38.7,29.80,West,270,5.0,30.0,48,0.07,,,0.07,meteohub,2013-01-30 16:31:00,
2013-01-30 11:33:00,58.1,39.0,29.80,WSW,248,11.0,30.0,49,0.07,,,0.07,meteohub,2013-01-30 16:33:00,
2013-01-30 11:35:00,57.9,39.4,29.81,WNW,293,18.0,30.0,50,0.07,,,0.07,meteohub,2013-01-30 16:35:00,
2013-01-30 11:37:00,58.1,39.6,29.80,WSW,248,15.0,30.0,50,0.07,,,0.07,meteohub,2013-01-30 16:37:00,
2013-01-30 11:38:00,57.9,39.9,29.81,West,270,12.0,30.0,51,0.07,,,0.07,meteohub,2013-01-30 16:38:00,
2013-01-30 11:39:00,57.7,39.7,29.81,West,270,13.0,30.0,51,0.07,,,0.07,meteohub,2013-01-30 16:39:00,
2013-01-30 11:40:00,57.7,39.7,29.81,WSW,248,8.0,30.0,51,0.07,,,0.07,meteohub,2013-01-30 16:40:00,
2013-01-30 11:42:00,57.6,40.1,29.81,West,270,11.0,18.0,52,0.07,,,0.07,meteohub,2013-01-30 16:42:00,
2013-01-30 11:43:00,57.6,40.1,29.82,West,270,12.0,18.0,52,0.07,,,0.07,meteohub,2013-01-30 16:43:00,
2013-01-30 11:45:00,57.6,40.1,29.81,WSW,248,11.0,18.0,52,0.07,,,0.07,meteohub,2013-01-30 16:45:00,
2013-01-30 11:47:00,57.4,40.5,29.82,NW,315,7.0,18.0,53,0.07,,,0.07,meteohub,2013-01-30 16:47:00,
2013-01-30 11:48:00,57.4,40.5,29.82,WSW,248,12.0,18.0,53,0.07,,,0.07,meteohub,2013-01-30 16:48:00,
2013-01-30 11:49:00,57.4,40.8,29.82,WSW,248,8.0,18.0,54,0.07,,,0.07,meteohub,2013-01-30 16:49:00,
2013-01-30 11:50:00,57.4,40.8,29.82,NE,45,10.0,18.0,54,0.07,,,0.08,meteohub,2013-01-30 16:50:00,
2013-01-30 11:52:00,57.2,41.2,29.82,WSW,248,8.0,18.0,55,0.08,,,0.08,meteohub,2013-01-30 16:52:00,
2013-01-30 11:53:00,57.2,41.2,29.82,WSW,248,7.0,18.0,55,0.08,,,0.08,meteohub,2013-01-30 16:53:00,
2013-01-30 11:54:00,57.2,41.7,29.81,South,180,8.0,18.0,56,0.08,,,0.08,meteohub,2013-01-30 16:54:00,
2013-01-30 11:55:00,57.2,41.7,29.82,West,270,8.0,12.0,56,0.08,,,0.08,meteohub,2013-01-30 16:55:00,
2013-01-30 11:58:00,57.2,42.1,29.81,South,180,5.0,12.0,57,0.08,,,0.08,meteohub,2013-01-30 16:58:00,
2013-01-30 12:00:00,57.2,42.1,29.81,South,180,5.0,12.0,57,0.08,,,0.08,meteohub,2013-01-30 17:00:00,
2013-01-30 12:03:00,57.0,42.4,29.82,WSW,248,7.0,12.0,58,0.08,,,0.08,meteohub,2013-01-30 17:03:00,
2013-01-30 12:04:00,57.0,42.4,29.82,WSW,248,8.0,12.0,58,0.08,,,0.08,meteohub,2013-01-30 17:04:00,
2013-01-30 12:05:00,57.0,42.8,29.82,WSW,248,4.0,12.0,59,0.08,,,0.08,meteohub,2013-01-30 17:05:00,
2013-01-30 12:06:00,57.0,42.8,29.81,WSW,248,5.0,11.0,59,0.08,,,0.08,meteohub,2013-01-30 17:06:00,
2013-01-30 12:10:00,57.0,43.3,29.81,South,180,3.0,11.0,60,0.08,,,0.08,meteohub,2013-01-30 17:10:00,
2013-01-30 12:11:00,57.0,43.3,29.81,WSW,248,4.0,8.0,60,0.02,,,0.08,meteohub,2013-01-30 17:11:00,
2013-01-30 12:15:00,56.8,43.5,29.81,South,180,7.0,8.0,61,0.02,,,0.09,meteohub,2013-01-30 17:15:00,
2013-01-30 12:16:00,56.8,43.5,29.81,South,180,7.0,8.0,61,0.04,,,0.09,meteohub,2013-01-30 17:16:00,
2013-01-30 12:21:00,56.7,43.7,29.80,South,180,6.0,8.0,62,0.02,,,0.09,meteohub,2013-01-30 17:21:00,
2013-01-30 12:22:00,56.7,43.7,29.80,WSW,248,7.0,8.0,62,0.02,,,0.09,meteohub,2013-01-30 17:22:00,
2013-01-30 12:26:00,56.7,44.2,29.79,WSW,248,8.0,9.0,63,0.04,,,0.11,meteohub,2013-01-30 17:26:00,
2013-01-30 12:27:00,56.7,44.2,29.79,WSW,248,8.0,9.0,63,0.04,,,0.11,meteohub,2013-01-30 17:27:00,
2013-01-30 12:31:00,56.7,44.2,29.80,WSW,248,5.0,9.0,63,0.04,,,0.11,meteohub,2013-01-30 17:31:00,
2013-01-30 12:32:00,56.7,44.2,29.80,WSW,248,5.0,9.0,63,0.04,,,0.11,meteohub,2013-01-30 17:32:00,
2013-01-30 12:33:00,56.7,44.2,29.80,South,180,6.0,9.0,63,0.04,,,0.11,meteohub,2013-01-30 17:33:00,
2013-01-30 12:37:00,56.5,44.1,29.79,WSW,248,4.0,9.0,63,0.04,,,0.11,meteohub,2013-01-30 17:37:00,
2013-01-30 12:38:00,56.5,44.1,29.80,WSW,248,9.0,9.0,63,0.04,,,0.11,meteohub,2013-01-30 17:38:00,
2013-01-30 12:39:00,56.5,44.4,29.80,WSW,248,8.0,9.0,64,0.04,,,0.11,meteohub,2013-01-30 17:39:00,
2013-01-30 12:42:00,56.5,44.4,29.80,West,270,4.0,9.0,64,0.04,,,0.11,meteohub,2013-01-30 17:42:00,
2013-01-30 12:43:00,56.5,44.4,29.79,South,180,8.0,9.0,64,0.04,,,0.11,meteohub,2013-01-30 17:43:00,
2013-01-30 12:44:00,56.5,44.4,29.80,WSW,248,4.0,9.0,64,0.04,,,0.11,meteohub,2013-01-30 17:44:00,
2013-01-30 12:45:00,56.5,44.4,29.79,WSW,248,4.0,9.0,64,0.04,,,0.11,meteohub,2013-01-30 17:45:00,
2013-01-30 12:48:00,56.5,44.8,29.79,South,180,4.0,9.0,65,0.04,,,0.11,meteohub,2013-01-30 17:48:00,
2013-01-30 12:49:00,56.5,44.8,29.79,West,270,4.0,9.0,65,0.04,,,0.11,meteohub,2013-01-30 17:49:00,
2013-01-30 12:50:00,56.5,44.8,29.79,West,270,4.0,9.0,65,0.04,,,0.11,meteohub,2013-01-30 17:50:00,
2013-01-30 12:51:00,56.5,44.8,29.80,South,180,7.0,9.0,65,0.02,,,0.11,meteohub,2013-01-30 17:51:00,
2013-01-30 12:53:00,56.3,44.6,29.79,WSW,248,8.0,9.0,65,0.02,,,0.11,meteohub,2013-01-30 17:53:00,
2013-01-30 12:55:00,56.3,44.6,29.78,East,90,4.0,9.0,65,0.02,,,0.11,meteohub,2013-01-30 17:55:00,
2013-01-30 12:56:00,56.3,45.1,29.79,WSW,248,5.0,9.0,66,0.02,,,0.11,meteohub,2013-01-30 17:56:00,
2013-01-30 12:58:00,56.3,45.1,29.79,SE,135,8.0,9.0,66,0.02,,,0.11,meteohub,2013-01-30 17:58:00,
2013-01-30 13:00:00,56.1,45.0,29.79,WSW,248,8.0,9.0,66,0.02,,,0.11,meteohub,2013-01-30 18:00:00,
2013-01-30 13:01:00,56.1,45.0,29.79,WSW,248,6.0,9.0,66,0.02,,,0.11,meteohub,2013-01-30 18:01:00,
2013-01-30 13:03:00,56.1,45.0,29.78,SE,135,5.0,9.0,66,0.02,,,0.11,meteohub,2013-01-30 18:03:00,
2013-01-30 13:06:00,56.1,45.3,29.78,WSW,248,9.0,9.0,67,0.02,,,0.11,meteohub,2013-01-30 18:06:00,
2013-01-30 13:07:00,55.9,45.1,29.78,South,180,8.0,9.0,67,0.02,,,0.11,meteohub,2013-01-30 18:07:00,
2013-01-30 13:09:00,55.9,45.1,29.78,SE,135,6.0,9.0,67,0.02,,,0.11,meteohub,2013-01-30 18:09:00,
2013-01-30 13:11:00,55.9,45.1,29.79,West,270,4.0,9.0,67,0.01,,,0.11,meteohub,2013-01-30 18:11:00,
2013-01-30 13:13:00,55.8,45.0,29.78,WSW,248,8.0,9.0,67,0.01,,,0.11,meteohub,2013-01-30 18:13:00,
2013-01-30 13:14:00,55.8,45.0,29.78,South,180,4.0,9.0,67,0.01,,,0.11,meteohub,2013-01-30 18:14:00,
2013-01-30 13:16:00,55.8,45.0,29.79,WSW,248,4.0,11.0,67,0.01,,,0.11,meteohub,2013-01-30 18:16:00,
2013-01-30 13:18:00,55.8,45.0,29.79,WSW,248,11.0,11.0,67,0.01,,,0.11,meteohub,2013-01-30 18:18:00,
2013-01-30 13:19:00,55.6,45.1,29.79,West,270,6.0,11.0,68,0.01,,,0.11,meteohub,2013-01-30 18:19:00,
2013-01-30 13:20:00,55.6,45.1,29.79,West,270,6.0,11.0,68,0.01,,,0.11,meteohub,2013-01-30 18:20:00,
2013-01-30 13:21:00,55.6,44.8,29.79,WSW,248,5.0,11.0,67,0.01,,,0.12,meteohub,2013-01-30 18:21:00,
2013-01-30 13:24:00,55.6,45.1,29.79,SE,135,6.0,11.0,68,0.01,,,0.12,meteohub,2013-01-30 18:24:00,
2013-01-30 13:25:00,55.6,45.1,29.79,WSW,248,4.0,11.0,68,0.01,,,0.12,meteohub,2013-01-30 18:25:00,
2013-01-30 13:26:00,55.6,45.1,29.79,WSW,248,7.0,11.0,68,0.01,,,0.12,meteohub,2013-01-30 18:26:00,
2013-01-30 13:27:00,55.4,45.0,29.79,South,180,7.0,11.0,68,0.01,,,0.12,meteohub,2013-01-30 18:27:00,
2013-01-30 13:29:00,55.4,45.0,29.79,South,180,6.0,11.0,68,0.01,,,0.12,meteohub,2013-01-30 18:29:00,
2013-01-30 13:30:00,55.4,45.0,29.79,SE,135,5.0,11.0,68,0.01,,,0.12,meteohub,2013-01-30 18:30:00,
2013-01-30 13:32:00,55.4,45.0,29.79,WSW,248,11.0,11.0,68,0.01,,,0.12,meteohub,2013-01-30 18:32:00,
2013-01-30 13:33:00,55.4,45.0,29.79,South,180,10.0,11.0,68,0.01,,,0.12,meteohub,2013-01-30 18:33:00,
2013-01-30 13:35:00,55.4,45.3,29.80,East,90,4.0,11.0,69,0.01,,,0.12,meteohub,2013-01-30 18:35:00,
2013-01-30 13:37:00,55.4,45.3,29.80,East,90,7.0,11.0,69,0.01,,,0.12,meteohub,2013-01-30 18:37:00,
2013-01-30 13:38:00,55.4,45.3,29.79,South,180,3.0,11.0,69,0.01,,,0.12,meteohub,2013-01-30 18:38:00,
2013-01-30 13:42:00,55.2,45.1,29.80,South,180,7.0,11.0,69,0.01,,,0.12,meteohub,2013-01-30 18:42:00,
2013-01-30 13:43:00,55.2,45.1,29.80,WSW,248,6.0,11.0,69,0.01,,,0.12,meteohub,2013-01-30 18:43:00,
2013-01-30 13:47:00,55.2,45.7,29.80,South,180,7.0,11.0,70,0.01,,,0.12,meteohub,2013-01-30 18:47:00,
2013-01-30 13:48:00,55.2,45.7,29.80,South,180,10.0,11.0,70,0.01,,,0.12,meteohub,2013-01-30 18:48:00,
2013-01-30 13:50:00,55.0,45.1,29.80,WSW,248,6.0,11.0,69,0.01,,,0.12,meteohub,2013-01-30 18:50:00,
2013-01-30 13:53:00,55.0,45.5,29.81,South,180,4.0,10.0,70,0.01,,,0.12,meteohub,2013-01-30 18:53:00,
2013-01-30 13:55:00,55.0,45.5,29.81,South,180,4.0,10.0,70,0.01,,,0.12,meteohub,2013-01-30 18:55:00,
2013-01-30 13:58:00,55.0,45.5,29.82,WSW,248,7.0,10.0,70,0.01,,,0.12,meteohub,2013-01-30 18:58:00,
2013-01-30 13:59:00,55.0,45.5,29.82,WSW,248,7.0,10.0,70,0.01,,,0.12,meteohub,2013-01-30 18:59:00,
2013-01-30 14:00:00,55.0,45.5,29.81,West,270,8.0,10.0,70,0.01,,,0.12,meteohub,2013-01-30 19:00:00,
2013-01-30 14:01:00,55.0,45.5,29.81,South,180,13.0,13.0,70,0.02,,,0.13,meteohub,2013-01-30 19:01:00,
2013-01-30 14:04:00,54.9,45.3,29.81,NW,315,8.0,10.0,70,0.02,,,0.13,meteohub,2013-01-30 19:04:00,
2013-01-30 14:05:00,54.9,45.3,29.81,WSW,248,4.0,13.0,70,0.02,,,0.13,meteohub,2013-01-30 19:05:00,
2013-01-30 14:06:00,54.9,45.3,29.81,NW,315,2.0,13.0,70,0.02,,,0.13,meteohub,2013-01-30 19:06:00,
2013-01-30 14:10:00,54.9,45.3,29.80,South,180,4.0,13.0,70,0.02,,,0.13,meteohub,2013-01-30 19:10:00,
2013-01-30 14:12:00,54.9,45.3,29.80,West,270,4.0,13.0,70,0.02,,,0.13,meteohub,2013-01-30 19:12:00,
2013-01-30 14:15:00,54.7,45.1,29.80,South,180,6.0,13.0,70,0.04,,,0.14,meteohub,2013-01-30 19:15:00,
2013-01-30 14:16:00,54.7,45.1,29.80,South,180,6.0,13.0,70,0.04,,,0.14,meteohub,2013-01-30 19:16:00,
2013-01-30 14:17:00,54.7,45.1,29.80,South,180,6.0,13.0,70,0.04,,,0.14,meteohub,2013-01-30 19:17:00,
2013-01-30 14:18:00,54.7,45.1,29.80,WSW,248,6.0,13.0,70,0.04,,,0.14,meteohub,2013-01-30 19:18:00,
2013-01-30 14:20:00,54.7,45.1,29.80,WSW,248,5.0,7.0,70,0.02,,,0.14,meteohub,2013-01-30 19:20:00,
2013-01-30 14:21:00,54.7,45.1,29.80,South,180,6.0,7.0,70,0.02,,,0.14,meteohub,2013-01-30 19:21:00,
2013-01-30 14:22:00,54.7,45.5,29.80,West,270,3.0,7.0,71,0.02,,,0.14,meteohub,2013-01-30 19:22:00,
2013-01-30 14:23:00,54.7,45.5,29.80,WSW,248,8.0,8.0,71,0.02,,,0.14,meteohub,2013-01-30 19:23:00,
2013-01-30 14:25:00,54.7,45.1,29.80,South,180,3.0,7.0,70,0.04,,,0.15,meteohub,2013-01-30 19:25:00,
2013-01-30 14:26:00,54.7,45.5,29.79,WSW,248,4.0,7.0,71,0.04,,,0.15,meteohub,2013-01-30 19:26:00,
2013-01-30 14:28:00,54.5,45.3,29.80,WSW,248,2.0,7.0,71,0.04,,,0.15,meteohub,2013-01-30 19:28:00,
2013-01-30 14:30:00,54.5,45.0,29.80,South,180,6.0,8.0,70,0.04,,,0.15,meteohub,2013-01-30 19:30:00,
2013-01-30 14:31:00,54.5,45.0,29.79,South,180,6.0,8.0,70,0.04,,,0.15,meteohub,2013-01-30 19:31:00,
2013-01-30 14:34:00,54.5,45.3,29.79,WSW,248,6.0,8.0,71,0.04,,,0.15,meteohub,2013-01-30 19:34:00,
2013-01-30 14:37:00,54.5,45.3,29.79,WSW,248,4.0,8.0,71,0.04,,,0.15,meteohub,2013-01-30 19:37:00,
2013-01-30 14:39:00,54.5,45.3,29.79,South,180,4.0,8.0,71,0.04,,,0.15,meteohub,2013-01-30 19:39:00,
2013-01-30 14:42:00,54.5,45.3,29.78,South,180,4.0,10.0,71,0.04,,,0.15,meteohub,2013-01-30 19:42:00,
2013-01-30 14:43:00,54.3,45.1,29.79,WSW,248,3.0,10.0,71,0.04,,,0.15,meteohub,2013-01-30 19:43:00,
2013-01-30 14:44:00,54.3,45.1,29.79,WSW,248,3.0,10.0,71,0.04,,,0.15,meteohub,2013-01-30 19:44:00,
2013-01-30 14:45:00,54.3,45.1,29.78,WSW,248,4.0,10.0,71,0.04,,,0.15,meteohub,2013-01-30 19:45:00,
2013-01-30 14:47:00,54.3,45.1,29.78,South,180,4.0,10.0,71,0.04,,,0.15,meteohub,2013-01-30 19:47:00,
2013-01-30 14:48:00,54.3,45.1,29.78,South,180,4.0,10.0,71,0.04,,,0.15,meteohub,2013-01-30 19:48:00,
2013-01-30 14:50:00,54.3,45.1,29.79,WSW,248,3.0,10.0,71,0.04,,,0.15,meteohub,2013-01-30 19:50:00,
2013-01-30 14:51:00,54.3,45.1,29.79,South,180,2.0,10.0,71,0.04,,,0.15,meteohub,2013-01-30 19:51:00,
2013-01-30 14:53:00,54.1,45.0,29.79,South,180,3.0,10.0,71,0.04,,,0.15,meteohub,2013-01-30 19:53:00,
2013-01-30 14:54:00,54.1,45.0,29.79,South,180,2.0,10.0,71,0.04,,,0.15,meteohub,2013-01-30 19:54:00,
2013-01-30 14:55:00,54.1,45.0,29.78,SE,135,6.0,9.0,71,0.02,,,0.15,meteohub,2013-01-30 19:55:00,
2013-01-30 14:56:00,54.1,45.0,29.78,East,90,7.0,9.0,71,0.02,,,0.15,meteohub,2013-01-30 19:56:00,
2013-01-30 14:59:00,54.1,45.0,29.78,South,180,4.0,9.0,71,0.02,,,0.15,meteohub,2013-01-30 19:59:00,
2013-01-30 15:00:00,54.1,45.0,29.78,South,180,4.0,9.0,71,0.02,,,0.15,meteohub,2013-01-30 20:00:00,
2013-01-30 15:01:00,54.1,45.0,29.78,South,180,7.0,9.0,71,0.02,,,0.15,meteohub,2013-01-30 20:01:00,
2013-01-30 15:04:00,54.1,45.0,29.78,WSW,248,2.0,9.0,71,0.02,,,0.15,meteohub,2013-01-30 20:04:00,
2013-01-30 15:05:00,54.1,45.0,29.78,South,180,4.0,9.0,71,0.02,,,0.15,meteohub,2013-01-30 20:05:00,
2013-01-30 15:06:00,54.1,45.0,29.77,SE,135,4.0,9.0,71,0.02,,,0.15,meteohub,2013-01-30 20:06:00,
2013-01-30 15:07:00,54.0,44.8,29.77,WSW,248,4.0,9.0,71,0.02,,,0.15,meteohub,2013-01-30 20:07:00,
2013-01-30 15:10:00,54.0,44.8,29.77,West,270,6.0,9.0,71,0.02,,,0.15,meteohub,2013-01-30 20:10:00,
2013-01-30 15:11:00,54.0,44.8,29.78,South,180,8.0,9.0,71,0.04,,,0.17,meteohub,2013-01-30 20:11:00,
2013-01-30 15:12:00,54.0,44.8,29.77,South,180,3.0,9.0,71,0.04,,,0.17,meteohub,2013-01-30 20:12:00,
2013-01-30 15:13:00,54.0,44.8,29.77,WSW,248,4.0,9.0,71,0.04,,,0.17,meteohub,2013-01-30 20:13:00,
2013-01-30 15:16:00,54.0,44.8,29.77,WSW,248,4.0,8.0,71,0.02,,,0.17,meteohub,2013-01-30 20:16:00,
2013-01-30 15:17:00,54.0,44.8,29.77,WSW,248,4.0,8.0,71,0.02,,,0.17,meteohub,2013-01-30 20:17:00,
2013-01-30 15:18:00,54.0,44.8,29.77,SE,135,2.0,8.0,71,0.02,,,0.17,meteohub,2013-01-30 20:18:00,
2013-01-30 15:21:00,53.8,44.6,29.76,SE,135,2.0,8.0,71,0.01,,,0.17,meteohub,2013-01-30 20:21:00,
2013-01-30 15:23:00,53.8,44.6,29.76,South,180,5.0,8.0,71,0.01,,,0.17,meteohub,2013-01-30 20:23:00,
2013-01-30 15:24:00,53.8,44.6,29.76,South,180,4.0,8.0,71,0.01,,,0.17,meteohub,2013-01-30 20:24:00,
2013-01-30 15:27:00,53.8,44.6,29.76,South,180,4.0,8.0,71,0.01,,,0.17,meteohub,2013-01-30 20:27:00,
2013-01-30 15:28:00,53.8,44.6,29.76,SE,135,3.0,8.0,71,0.01,,,0.17,meteohub,2013-01-30 20:28:00,
2013-01-30 15:29:00,53.8,44.6,29.76,South,180,4.0,8.0,71,0.01,,,0.17,meteohub,2013-01-30 20:29:00,
2013-01-30 15:32:00,53.8,44.6,29.76,SE,135,2.0,9.0,71,0.02,,,0.17,meteohub,2013-01-30 20:32:00,
2013-01-30 15:33:00,53.8,44.6,29.76,South,180,7.0,9.0,71,0.02,,,0.17,meteohub,2013-01-30 20:33:00,
2013-01-30 15:34:00,53.8,44.6,29.76,WSW,248,5.0,9.0,71,0.02,,,0.17,meteohub,2013-01-30 20:34:00,
2013-01-30 15:38:00,53.6,44.4,29.76,South,180,4.0,9.0,71,0.02,,,0.18,meteohub,2013-01-30 20:38:00,
2013-01-30 15:39:00,53.6,44.4,29.75,SE,135,2.0,9.0,71,0.02,,,0.18,meteohub,2013-01-30 20:39:00,
2013-01-30 15:40:00,53.6,44.4,29.75,South,180,8.0,9.0,71,0.02,,,0.18,meteohub,2013-01-30 20:40:00,
2013-01-30 15:41:00,53.6,44.4,29.75,South,180,4.0,9.0,71,0.02,,,0.18,meteohub,2013-01-30 20:41:00,
2013-01-30 15:43:00,53.6,44.4,29.75,South,180,4.0,9.0,71,0.02,,,0.18,meteohub,2013-01-30 20:43:00,
2013-01-30 15:44:00,53.6,44.4,29.75,SE,135,8.0,9.0,71,0.02,,,0.18,meteohub,2013-01-30 20:44:00,
2013-01-30 15:45:00,53.6,44.4,29.75,South,180,4.0,9.0,71,0.02,,,0.18,meteohub,2013-01-30 20:45:00,
2013-01-30 15:46:00,53.6,44.4,29.75,SE,135,7.0,9.0,71,0.02,,,0.18,meteohub,2013-01-30 20:46:00,
2013-01-30 15:49:00,53.6,44.4,29.74,South,180,6.0,9.0,71,0.02,,,0.18,meteohub,2013-01-30 20:49:00,
2013-01-30 15:50:00,53.6,44.4,29.74,South,180,7.0,9.0,71,0.02,,,0.18,meteohub,2013-01-30 20:50:00,
2013-01-30 15:51:00,53.6,44.4,29.75,South,180,6.0,8.0,71,0.02,,,0.18,meteohub,2013-01-30 20:51:00,
2013-01-30 15:52:00,53.6,44.4,29.74,South,180,5.0,8.0,71,0.02,,,0.18,meteohub,2013-01-30 20:52:00,
2013-01-30 15:54:00,53.6,44.4,29.75,South,180,6.0,8.0,71,0.02,,,0.18,meteohub,2013-01-30 20:54:00,
2013-01-30 15:55:00,53.4,44.2,29.75,SE,135,4.0,8.0,71,0.02,,,0.19,meteohub,2013-01-30 20:55:00,
2013-01-30 15:56:00,53.4,44.2,29.75,SE,135,2.0,8.0,71,0.04,,,0.19,meteohub,2013-01-30 20:56:00,
2013-01-30 15:57:00,53.4,44.2,29.75,SE,135,2.0,8.0,71,0.04,,,0.19,meteohub,2013-01-30 20:57:00,
2013-01-30 16:01:00,53.4,44.2,29.75,SE,135,4.0,8.0,71,0.04,,,0.19,meteohub,2013-01-30 21:01:00,
2013-01-30 16:02:00,53.4,44.2,29.75,SE,135,4.0,8.0,71,0.04,,,0.19,meteohub,2013-01-30 21:02:00,
2013-01-30 16:07:00,53.4,44.2,29.75,WSW,248,4.0,8.0,71,0.04,,,0.19,meteohub,2013-01-30 21:07:00,
2013-01-30 16:08:00,53.2,44.1,29.75,South,180,5.0,8.0,71,0.04,,,0.19,meteohub,2013-01-30 21:08:00,
2013-01-30 16:12:00,53.2,44.4,29.75,SE,135,4.0,9.0,72,0.04,,,0.20,meteohub,2013-01-30 21:12:00,
2013-01-30 16:13:00,53.2,44.1,29.75,WSW,248,4.0,9.0,71,0.04,,,0.20,meteohub,2013-01-30 21:13:00,
2013-01-30 16:14:00,53.2,44.1,29.75,South,180,2.0,9.0,71,0.04,,,0.20,meteohub,2013-01-30 21:14:00,
2013-01-30 16:17:00,53.2,44.1,29.75,South,180,3.0,9.0,71,0.04,,,0.20,meteohub,2013-01-30 21:17:00,
2013-01-30 16:18:00,53.2,44.1,29.75,SE,135,2.0,9.0,71,0.04,,,0.20,meteohub,2013-01-30 21:18:00,
2013-01-30 16:19:00,53.2,44.4,29.75,South,180,4.0,9.0,72,0.04,,,0.20,meteohub,2013-01-30 21:19:00,
2013-01-30 16:20:00,53.1,44.2,29.75,WSW,248,7.0,9.0,72,0.04,,,0.20,meteohub,2013-01-30 21:20:00,
2013-01-30 16:23:00,53.1,44.2,29.75,South,180,7.0,7.0,72,0.04,,,0.20,meteohub,2013-01-30 21:23:00,
2013-01-30 16:24:00,53.1,44.2,29.75,WSW,248,5.0,7.0,72,0.04,,,0.20,meteohub,2013-01-30 21:24:00,
2013-01-30 16:25:00,53.1,44.2,29.75,WSW,248,4.0,7.0,72,0.04,,,0.20,meteohub,2013-01-30 21:25:00,
2013-01-30 16:26:00,53.1,43.9,29.75,South,180,6.0,8.0,71,0.04,,,0.20,meteohub,2013-01-30 21:26:00,
2013-01-30 16:29:00,52.9,43.7,29.75,South,180,3.0,8.0,71,0.04,,,0.20,meteohub,2013-01-30 21:29:00,
2013-01-30 16:30:00,52.9,44.1,29.75,WSW,248,5.0,8.0,72,0.04,,,0.20,meteohub,2013-01-30 21:30:00,
2013-01-30 16:32:00,52.9,43.7,29.74,South,180,3.0,9.0,71,0.02,,,0.20,meteohub,2013-01-30 21:32:00,
2013-01-30 16:34:00,52.7,43.5,29.75,SE,135,4.0,9.0,71,0.02,,,0.20,meteohub,2013-01-30 21:34:00,
2013-01-30 16:35:00,52.7,43.5,29.75,West,270,6.0,9.0,71,0.04,,,0.21,meteohub,2013-01-30 21:35:00,
2013-01-30 16:36:00,52.7,43.5,29.75,West,270,6.0,9.0,71,0.04,,,0.21,meteohub,2013-01-30 21:36:00,
2013-01-30 16:37:00,52.7,43.5,29.75,South,180,4.0,9.0,71,0.04,,,0.21,meteohub,2013-01-30 21:37:00,
2013-01-30 16:39:00,52.5,43.3,29.75,SE,135,4.0,9.0,71,0.04,,,0.21,meteohub,2013-01-30 21:39:00,
2013-01-30 16:41:00,52.5,43.3,29.75,South,180,2.0,9.0,71,0.05,,,0.22,meteohub,2013-01-30 21:41:00,
2013-01-30 16:43:00,52.3,43.2,29.74,South,180,8.0,9.0,71,0.05,,,0.22,meteohub,2013-01-30 21:43:00,
2013-01-30 16:45:00,52.3,42.8,29.75,SE,135,4.0,9.0,70,0.05,,,0.22,meteohub,2013-01-30 21:45:00,
2013-01-30 16:46:00,52.3,43.2,29.75,South,180,3.0,8.0,71,0.05,,,0.22,meteohub,2013-01-30 21:46:00,
2013-01-30 16:47:00,52.3,42.8,29.75,SE,135,4.0,8.0,70,0.05,,,0.22,meteohub,2013-01-30 21:47:00,
2013-01-30 16:48:00,52.2,42.6,29.75,SE,135,7.0,8.0,70,0.05,,,0.22,meteohub,2013-01-30 21:48:00,
2013-01-30 16:50:00,52.2,42.6,29.75,WSW,248,4.0,8.0,70,0.05,,,0.24,meteohub,2013-01-30 21:50:00,
2013-01-30 16:53:00,52.2,42.6,29.74,SE,135,4.0,8.0,70,0.06,,,0.24,meteohub,2013-01-30 21:53:00,
2013-01-30 16:54:00,52.2,42.6,29.74,SSE,158,4.0,8.0,70,0.06,,,0.24,meteohub,2013-01-30 21:54:00,
2013-01-30 16:55:00,52.2,42.6,29.74,SE,135,4.0,8.0,70,0.05,,,0.24,meteohub,2013-01-30 21:55:00,
2013-01-30 16:58:00,52.2,42.6,29.74,SE,135,3.0,8.0,70,0.05,,,0.24,meteohub,2013-01-30 21:58:00,
2013-01-30 16:59:00,52.0,42.4,29.74,SE,135,5.0,8.0,70,0.05,,,0.24,meteohub,2013-01-30 21:59:00,
2013-01-30 17:00:00,52.0,42.4,29.74,SE,135,5.0,8.0,70,0.05,,,0.24,meteohub,2013-01-30 22:00:00,
2013-01-30 17:02:00,52.0,42.4,29.74,SE,135,2.0,7.0,70,0.06,,,0.25,meteohub,2013-01-30 22:02:00,
2013-01-30 17:03:00,52.0,42.4,29.74,South,180,4.0,7.0,70,0.06,,,0.25,meteohub,2013-01-30 22:03:00,
2013-01-30 17:05:00,52.0,42.4,29.74,SE,135,2.0,7.0,70,0.06,,,0.25,meteohub,2013-01-30 22:05:00,
2013-01-30 17:08:00,52.0,42.4,29.74,SE,135,3.0,5.0,70,0.06,,,0.25,meteohub,2013-01-30 22:08:00,
2013-01-30 17:11:00,51.8,42.3,29.73,East,90,3.0,5.0,70,0.05,,,0.25,meteohub,2013-01-30 22:11:00,
2013-01-30 17:13:00,51.8,42.3,29.73,SE,135,4.0,5.0,70,0.05,,,0.25,meteohub,2013-01-30 22:13:00,
2013-01-30 17:14:00,51.8,42.3,29.73,SE,135,4.0,5.0,70,0.05,,,0.25,meteohub,2013-01-30 22:14:00,
2013-01-30 17:16:00,51.8,42.3,29.73,East,90,3.0,4.0,70,0.06,,,0.26,meteohub,2013-01-30 22:16:00,
2013-01-30 17:19:00,51.6,42.1,29.72,SE,135,2.0,4.0,70,0.06,,,0.26,meteohub,2013-01-30 22:19:00,
2013-01-30 17:20:00,51.6,42.1,29.72,SE,135,2.0,4.0,70,0.06,,,0.26,meteohub,2013-01-30 22:20:00,
2013-01-30 17:21:00,51.6,42.1,29.72,SE,135,2.0,4.0,70,0.07,,,0.27,meteohub,2013-01-30 22:21:00,
2013-01-30 17:24:00,51.6,42.1,29.71,SE,135,3.0,4.0,70,0.07,,,0.27,meteohub,2013-01-30 22:24:00,
2013-01-30 17:25:00,51.6,42.1,29.71,East,90,3.0,4.0,70,0.07,,,0.27,meteohub,2013-01-30 22:25:00,
2013-01-30 17:26:00,51.6,42.1,29.71,SE,135,4.0,4.0,70,0.07,,,0.27,meteohub,2013-01-30 22:26:00,
2013-01-30 17:27:00,51.6,42.1,29.71,SE,135,2.0,4.0,70,0.07,,,0.27,meteohub,2013-01-30 22:27:00,
2013-01-30 17:29:00,51.6,42.1,29.71,East,90,3.0,4.0,70,0.07,,,0.27,meteohub,2013-01-30 22:29:00,
2013-01-30 17:30:00,51.6,42.1,29.71,East,90,3.0,4.0,70,0.06,,,0.27,meteohub,2013-01-30 22:30:00,
2013-01-30 17:32:00,51.6,42.1,29.70,SE,135,3.0,4.0,70,0.06,,,0.27,meteohub,2013-01-30 22:32:00,
2013-01-30 17:33:00,51.6,42.1,29.70,SE,135,3.0,4.0,70,0.06,,,0.27,meteohub,2013-01-30 22:33:00,
2013-01-30 17:35:00,51.4,41.9,29.70,SE,135,4.0,4.0,70,0.06,,,0.27,meteohub,2013-01-30 22:35:00,
2013-01-30 17:36:00,51.4,41.9,29.70,SE,135,3.0,4.0,70,0.07,,,0.27,meteohub,2013-01-30 22:36:00,
2013-01-30 17:38:00,51.6,42.4,29.70,SE,135,4.0,4.0,71,0.07,,,0.27,meteohub,2013-01-30 22:38:00,
2013-01-30 17:39:00,51.4,42.4,29.70,SE,135,2.0,4.0,71,0.07,,,0.27,meteohub,2013-01-30 22:39:00,
2013-01-30 17:41:00,51.4,42.4,29.70,SE,135,4.0,4.0,71,0.06,,,0.28,meteohub,2013-01-30 22:41:00,
2013-01-30 17:42:00,51.4,42.4,29.70,SE,135,3.0,4.0,71,0.06,,,0.28,meteohub,2013-01-30 22:42:00,
2013-01-30 17:43:00,51.6,42.4,29.70,East,90,3.0,4.0,71,0.06,,,0.28,meteohub,2013-01-30 22:43:00,
2013-01-30 17:46:00,51.6,42.4,29.70,SE,135,3.0,4.0,71,0.07,,,0.30,meteohub,2013-01-30 22:46:00,
2013-01-30 17:47:00,51.6,42.4,29.70,SE,135,3.0,4.0,71,0.07,,,0.30,meteohub,2013-01-30 22:47:00,
2013-01-30 17:48:00,51.6,42.4,29.70,SE,135,3.0,4.0,71,0.07,,,0.30,meteohub,2013-01-30 22:48:00,
2013-01-30 17:49:00,51.6,42.4,29.70,SE,135,3.0,4.0,71,0.07,,,0.30,meteohub,2013-01-30 22:49:00,
2013-01-30 17:51:00,51.6,42.4,29.70,SE,135,3.0,4.0,71,0.06,,,0.30,meteohub,2013-01-30 22:51:00,
2013-01-30 17:52:00,51.6,42.4,29.70,SE,135,3.0,4.0,71,0.06,,,0.30,meteohub,2013-01-30 22:52:00,
2013-01-30 17:53:00,51.6,42.4,29.70,SE,135,3.0,4.0,71,0.06,,,0.30,meteohub,2013-01-30 22:53:00,
2013-01-30 17:55:00,51.8,42.6,29.70,SE,135,3.0,4.0,71,0.06,,,0.30,meteohub,2013-01-30 22:55:00,
2013-01-30 17:57:00,51.8,42.6,29.70,SE,135,4.0,4.0,71,0.06,,,0.31,meteohub,2013-01-30 22:57:00,
2013-01-30 17:58:00,51.8,42.6,29.70,SE,135,4.0,4.0,71,0.06,,,0.31,meteohub,2013-01-30 22:58:00,
2013-01-30 17:59:00,51.8,42.6,29.70,SE,135,4.0,4.0,71,0.06,,,0.31,meteohub,2013-01-30 22:59:00,
2013-01-30 18:00:00,52.0,42.8,29.69,East,90,4.0,4.0,71,0.07,,,0.32,meteohub,2013-01-30 23:00:00,
2013-01-30 18:03:00,52.0,42.8,29.69,East,90,4.0,5.0,71,0.07,,,0.32,meteohub,2013-01-30 23:03:00,
2013-01-30 18:04:00,52.0,43.2,29.69,East,90,4.0,5.0,72,0.07,,,0.32,meteohub,2013-01-30 23:04:00,
2013-01-30 18:05:00,52.0,43.2,29.69,East,90,4.0,5.0,72,0.07,,,0.32,meteohub,2013-01-30 23:05:00,
2013-01-30 18:08:00,52.0,43.2,29.69,SSE,158,5.0,5.0,72,0.07,,,0.32,meteohub,2013-01-30 23:08:00,
2013-01-30 18:10:00,52.0,43.2,29.69,SE,135,5.0,5.0,72,0.07,,,0.32,meteohub,2013-01-30 23:10:00,
2013-01-30 18:11:00,52.2,43.3,29.69,SE,135,6.0,6.0,72,0.06,,,0.32,meteohub,2013-01-30 23:11:00,
2013-01-30 18:13:00,52.2,43.3,29.68,SE,135,4.0,6.0,72,0.06,,,0.32,meteohub,2013-01-30 23:13:00,
2013-01-30 18:14:00,52.2,43.3,29.68,SE,135,4.0,6.0,72,0.06,,,0.32,meteohub,2013-01-30 23:14:00,
2013-01-30 18:15:00,52.0,43.2,29.68,East,90,4.0,6.0,72,0.06,,,0.32,meteohub,2013-01-30 23:15:00,
2013-01-30 18:17:00,52.2,43.3,29.68,East,90,6.0,6.0,72,0.07,,,0.33,meteohub,2013-01-30 23:17:00,
2013-01-30 18:19:00,52.0,43.2,29.68,SE,135,4.0,6.0,72,0.07,,,0.33,meteohub,2013-01-30 23:19:00,
2013-01-30 18:20:00,52.0,43.2,29.67,East,90,4.0,6.0,72,0.06,,,0.33,meteohub,2013-01-30 23:20:00,
2013-01-30 18:22:00,52.0,43.2,29.67,East,90,4.0,6.0,72,0.06,,,0.33,meteohub,2013-01-30 23:22:00,
2013-01-30 18:24:00,52.0,43.2,29.67,ESE,113,4.0,6.0,72,0.06,,,0.33,meteohub,2013-01-30 23:24:00,
2013-01-30 18:26:00,52.0,43.2,29.67,SE,135,5.0,6.0,72,0.07,,,0.34,meteohub,2013-01-30 23:26:00,
2013-01-30 18:28:00,52.0,43.2,29.66,East,90,4.0,6.0,72,0.07,,,0.34,meteohub,2013-01-30 23:28:00,
2013-01-30 18:29:00,52.0,43.2,29.66,SE,135,5.0,6.0,72,0.07,,,0.34,meteohub,2013-01-30 23:29:00,
2013-01-30 18:31:00,52.0,43.2,29.66,East,90,4.0,6.0,72,0.07,,,0.34,meteohub,2013-01-30 23:31:00,
2013-01-30 18:32:00,52.0,43.2,29.66,ESE,113,4.0,6.0,72,0.07,,,0.34,meteohub,2013-01-30 23:32:00,
2013-01-30 18:33:00,52.0,43.2,29.66,SE,135,4.0,6.0,72,0.07,,,0.34,meteohub,2013-01-30 23:33:00,
2013-01-30 18:36:00,52.2,43.3,29.65,SE,135,4.0,6.0,72,0.06,,,0.34,meteohub,2013-01-30 23:36:00,
2013-01-30 18:37:00,52.2,43.7,29.65,SE,135,5.0,6.0,73,0.06,,,0.34,meteohub,2013-01-30 23:37:00,
2013-01-30 18:39:00,52.2,43.7,29.66,SE,135,6.0,6.0,73,0.06,,,0.34,meteohub,2013-01-30 23:39:00,
2013-01-30 18:42:00,52.2,43.7,29.65,SE,135,5.0,6.0,73,0.05,,,0.34,meteohub,2013-01-30 23:42:00,
2013-01-30 18:44:00,52.2,43.7,29.65,SE,135,4.0,6.0,73,0.05,,,0.34,meteohub,2013-01-30 23:44:00,
2013-01-30 18:47:00,52.2,43.7,29.65,East,90,5.0,6.0,73,0.05,,,0.34,meteohub,2013-01-30 23:47:00,
2013-01-30 18:49:00,52.2,43.7,29.65,SE,135,6.0,6.0,73,0.05,,,0.34,meteohub,2013-01-30 23:49:00,
2013-01-30 18:50:00,52.2,43.7,29.65,East,90,4.0,6.0,73,0.05,,,0.35,meteohub,2013-01-30 23:50:00,
2013-01-30 18:52:00,52.2,43.7,29.66,SE,135,5.0,6.0,73,0.05,,,0.35,meteohub,2013-01-30 23:52:00,
2013-01-30 18:53:00,52.2,43.7,29.66,SE,135,4.0,6.0,73,0.05,,,0.35,meteohub,2013-01-30 23:53:00,
2013-01-30 18:55:00,52.2,43.7,29.65,East,90,5.0,6.0,73,0.05,,,0.35,meteohub,2013-01-30 23:55:00,
2013-01-30 18:56:00,52.2,43.7,29.66,SE,135,7.0,7.0,73,0.05,,,0.37,meteohub,2013-01-30 23:56:00,
2013-01-30 18:58:00,52.2,43.7,29.66,South,180,4.0,6.0,73,0.05,,,0.37,meteohub,2013-01-30 23:58:00,
2013-01-30 19:01:00,52.2,43.7,29.65,SE,135,4.0,7.0,73,0.05,,,0.37,meteohub,2013-01-31 00:01:00,
2013-01-30 19:02:00,52.2,43.7,29.66,SE,135,4.0,7.0,73,0.05,,,0.37,meteohub,2013-01-31 00:02:00,
2013-01-30 19:04:00,52.2,43.7,29.65,SE,135,4.0,7.0,73,0.05,,,0.37,meteohub,2013-01-31 00:04:00,
2013-01-30 19:06:00,52.2,43.7,29.65,East,90,4.0,8.0,73,0.06,,,0.38,meteohub,2013-01-31 00:06:00,
2013-01-30 19:07:00,52.2,43.7,29.65,SE,135,7.0,8.0,73,0.06,,,0.38,meteohub,2013-01-31 00:07:00,
2013-01-30 19:09:00,52.2,43.7,29.65,SE,135,5.0,8.0,73,0.06,,,0.38,meteohub,2013-01-31 00:09:00,
2013-01-30 19:12:00,52.2,43.7,29.65,East,90,4.0,8.0,73,0.07,,,0.39,meteohub,2013-01-31 00:12:00,
2013-01-30 19:13:00,52.2,43.7,29.65,East,90,4.0,8.0,73,0.07,,,0.39,meteohub,2013-01-31 00:13:00,
2013-01-30 19:14:00,52.2,43.7,29.64,SE,135,4.0,8.0,73,0.07,,,0.39,meteohub,2013-01-31 00:14:00,
2013-01-30 19:15:00,52.2,43.7,29.64,SE,135,4.0,8.0,73,0.06,,,0.39,meteohub,2013-01-31 00:15:00,
2013-01-30 19:18:00,52.2,43.7,29.64,SE,135,6.0,8.0,73,0.06,,,0.39,meteohub,2013-01-31 00:18:00,
2013-01-30 19:19:00,52.2,43.7,29.63,East,90,6.0,8.0,73,0.06,,,0.39,meteohub,2013-01-31 00:19:00,
2013-01-30 19:20:00,52.2,43.7,29.63,SE,135,4.0,8.0,73,0.07,,,0.40,meteohub,2013-01-31 00:20:00,
2013-01-30 19:23:00,52.2,43.7,29.62,SE,135,5.0,8.0,73,0.07,,,0.40,meteohub,2013-01-31 00:23:00,
2013-01-30 19:24:00,52.2,43.7,29.62,East,90,5.0,8.0,73,0.07,,,0.40,meteohub,2013-01-31 00:24:00,
2013-01-30 19:25:00,52.2,43.7,29.62,SE,135,6.0,7.0,73,0.07,,,0.41,meteohub,2013-01-31 00:25:00,
2013-01-30 19:28:00,52.2,43.7,29.62,SE,135,5.0,7.0,73,0.07,,,0.41,meteohub,2013-01-31 00:28:00,
2013-01-30 19:29:00,52.2,43.7,29.62,East,90,5.0,7.0,73,0.07,,,0.41,meteohub,2013-01-31 00:29:00,
2013-01-30 19:30:00,52.2,43.7,29.62,SE,135,6.0,7.0,73,0.07,,,0.41,meteohub,2013-01-31 00:30:00,
2013-01-30 19:32:00,52.2,43.7,29.62,SE,135,7.0,7.0,73,0.07,,,0.41,meteohub,2013-01-31 00:32:00,
2013-01-30 19:34:00,52.2,43.7,29.62,SE,135,5.0,7.0,73,0.07,,,0.41,meteohub,2013-01-31 00:34:00,
2013-01-30 19:35:00,52.2,43.7,29.62,East,90,6.0,7.0,73,0.07,,,0.43,meteohub,2013-01-31 00:35:00,
2013-01-30 19:38:00,52.2,43.7,29.62,SE,135,5.0,7.0,73,0.08,,,0.43,meteohub,2013-01-31 00:38:00,
2013-01-30 19:40:00,52.2,43.7,29.61,SE,135,7.0,7.0,73,0.08,,,0.43,meteohub,2013-01-31 00:40:00,
2013-01-30 19:41:00,52.2,43.7,29.61,East,90,7.0,7.0,73,0.09,,,0.43,meteohub,2013-01-31 00:41:00,
2013-01-30 19:43:00,52.2,43.7,29.61,East,90,5.0,7.0,73,0.09,,,0.43,meteohub,2013-01-31 00:43:00,
2013-01-30 19:45:00,52.3,43.9,29.61,East,90,6.0,7.0,73,0.09,,,0.43,meteohub,2013-01-31 00:45:00,
2013-01-30 19:46:00,52.2,43.7,29.60,SE,135,5.0,8.0,73,0.09,,,0.44,meteohub,2013-01-31 00:46:00,
2013-01-30 19:48:00,52.2,43.7,29.60,SE,135,5.0,8.0,73,0.09,,,0.44,meteohub,2013-01-31 00:48:00,
2013-01-30 19:51:00,52.2,43.7,29.60,SE,135,5.0,8.0,73,0.08,,,0.44,meteohub,2013-01-31 00:51:00,
2013-01-30 19:52:00,52.2,43.7,29.60,ENE,68,5.0,8.0,73,0.08,,,0.44,meteohub,2013-01-31 00:52:00,
2013-01-30 19:55:00,52.3,43.9,29.60,NE,45,5.0,8.0,73,0.08,,,0.44,meteohub,2013-01-31 00:55:00,
2013-01-30 19:56:00,52.3,43.9,29.60,NE,45,6.0,8.0,73,0.08,,,0.45,meteohub,2013-01-31 00:56:00,
2013-01-30 19:58:00,52.3,43.9,29.60,SSE,158,6.0,8.0,73,0.08,,,0.45,meteohub,2013-01-31 00:58:00,
2013-01-30 20:01:00,52.3,43.9,29.60,SE,135,6.0,8.0,73,0.09,,,0.46,meteohub,2013-01-31 01:01:00,
2013-01-30 20:02:00,52.3,43.9,29.60,SE,135,6.0,8.0,73,0.09,,,0.46,meteohub,2013-01-31 01:02:00,
2013-01-30 20:04:00,52.3,43.9,29.60,SE,135,5.0,8.0,73,0.09,,,0.46,meteohub,2013-01-31 01:04:00,
2013-01-30 20:06:00,52.3,43.9,29.59,SE,135,11.0,11.0,73,0.09,,,0.47,meteohub,2013-01-31 01:06:00,
2013-01-30 20:07:00,52.3,43.9,29.59,South,180,7.0,7.0,73,0.09,,,0.47,meteohub,2013-01-31 01:07:00,
2013-01-30 20:08:00,52.3,43.9,29.59,East,90,11.0,11.0,73,0.09,,,0.47,meteohub,2013-01-31 01:08:00,
2013-01-30 20:10:00,52.3,43.9,29.58,East,90,6.0,7.0,73,0.09,,,0.48,meteohub,2013-01-31 01:10:00,
2013-01-30 20:12:00,52.3,43.9,29.57,ESE,113,6.0,11.0,73,0.09,,,0.48,meteohub,2013-01-31 01:12:00,
2013-01-30 20:13:00,52.3,43.9,29.57,ESE,113,6.0,11.0,73,0.09,,,0.48,meteohub,2013-01-31 01:13:00,
2013-01-30 20:17:00,52.3,43.9,29.57,East,90,7.0,11.0,73,0.11,,,0.50,meteohub,2013-01-31 01:17:00,
2013-01-30 20:18:00,52.3,43.9,29.57,SE,135,7.0,11.0,73,0.11,,,0.50,meteohub,2013-01-31 01:18:00,
2013-01-30 20:22:00,52.5,44.1,29.57,SE,135,13.0,13.0,73,0.11,,,0.51,meteohub,2013-01-31 01:22:00,
2013-01-30 20:23:00,52.5,44.1,29.57,SE,135,13.0,13.0,73,0.11,,,0.51,meteohub,2013-01-31 01:23:00,
2013-01-30 20:24:00,52.5,44.1,29.57,South,180,5.0,11.0,73,0.11,,,0.51,meteohub,2013-01-31 01:24:00,
2013-01-30 20:28:00,52.5,44.1,29.54,SE,135,8.0,15.0,73,0.09,,,0.51,meteohub,2013-01-31 01:28:00,
2013-01-30 20:29:00,52.5,44.1,29.55,SE,135,7.0,15.0,73,0.09,,,0.51,meteohub,2013-01-31 01:29:00,
2013-01-30 20:30:00,52.5,44.1,29.55,SE,135,7.0,15.0,73,0.09,,,0.51,meteohub,2013-01-31 01:30:00,
2013-01-30 20:34:00,52.3,43.9,29.54,East,90,4.0,15.0,73,0.09,,,0.52,meteohub,2013-01-31 01:34:00,
2013-01-30 20:35:00,52.3,43.9,29.55,South,180,9.0,15.0,73,0.11,,,0.53,meteohub,2013-01-31 01:35:00,
2013-01-30 20:39:00,52.5,44.1,29.55,South,180,8.0,15.0,73,0.11,,,0.53,meteohub,2013-01-31 01:39:00,
2013-01-30 20:40:00,52.5,44.1,29.55,SE,135,8.0,9.0,73,0.11,,,0.54,meteohub,2013-01-31 01:40:00,
2013-01-30 20:41:00,52.5,44.1,29.55,SE,135,5.0,9.0,73,0.11,,,0.54,meteohub,2013-01-31 01:41:00,
2013-01-30 20:45:00,52.5,44.1,29.55,SE,135,5.0,9.0,73,0.11,,,0.56,meteohub,2013-01-31 01:45:00,
2013-01-30 20:46:00,52.5,44.1,29.56,SE,135,4.0,9.0,73,0.12,,,0.56,meteohub,2013-01-31 01:46:00,
2013-01-30 20:50:00,52.5,44.1,29.55,SE,135,11.0,11.0,73,0.12,,,0.56,meteohub,2013-01-31 01:50:00,
2013-01-30 20:51:00,52.5,44.1,29.55,South,180,6.0,9.0,73,0.11,,,0.56,meteohub,2013-01-31 01:51:00,
2013-01-30 20:52:00,52.5,44.1,29.55,SE,135,7.0,9.0,73,0.11,,,0.56,meteohub,2013-01-31 01:52:00,
2013-01-30 20:55:00,52.5,44.1,29.56,SE,135,4.0,11.0,73,0.13,,,0.58,meteohub,2013-01-31 01:55:00,
2013-01-30 20:56:00,52.5,44.1,29.55,South,180,4.0,11.0,73,0.13,,,0.58,meteohub,2013-01-31 01:56:00,
2013-01-30 20:57:00,52.5,44.1,29.55,SE,135,4.0,11.0,73,0.13,,,0.58,meteohub,2013-01-31 01:57:00,
2013-01-30 21:01:00,52.5,44.1,29.56,South,180,7.0,15.0,73,0.12,,,0.58,meteohub,2013-01-31 02:01:00,
2013-01-30 21:02:00,52.5,44.1,29.56,South,180,7.0,15.0,73,0.12,,,0.58,meteohub,2013-01-31 02:02:00,
2013-01-30 21:07:00,52.5,44.1,29.55,SE,135,4.0,15.0,73,0.12,,,0.59,meteohub,2013-01-31 02:07:00,
2013-01-30 21:08:00,52.5,44.1,29.55,SE,135,7.0,15.0,73,0.12,,,0.59,meteohub,2013-01-31 02:08:00,
2013-01-30 21:11:00,52.3,43.9,29.54,SE,135,4.0,10.0,73,0.12,,,0.60,meteohub,2013-01-31 02:11:00,
2013-01-30 21:12:00,52.5,44.1,29.54,SE,135,6.0,10.0,73,0.12,,,0.60,meteohub,2013-01-31 02:12:00,
2013-01-30 21:13:00,52.3,43.9,29.55,SE,135,4.0,10.0,73,0.12,,,0.60,meteohub,2013-01-31 02:13:00,
2013-01-30 21:15:00,52.3,43.9,29.54,WSW,248,6.0,10.0,73,0.12,,,0.60,meteohub,2013-01-31 02:15:00,
2013-01-30 21:17:00,52.3,43.9,29.52,SE,135,4.0,10.0,73,0.12,,,0.61,meteohub,2013-01-31 02:17:00,
2013-01-30 21:18:00,52.3,43.9,29.52,SE,135,4.0,10.0,73,0.12,,,0.61,meteohub,2013-01-31 02:18:00,
2013-01-30 21:20:00,52.3,43.9,29.52,East,90,4.0,10.0,73,0.12,,,0.63,meteohub,2013-01-31 02:20:00,
2013-01-30 21:21:00,52.3,43.9,29.52,East,90,4.0,8.0,73,0.12,,,0.63,meteohub,2013-01-31 02:21:00,
2013-01-30 21:23:00,52.5,44.1,29.52,SE,135,4.0,8.0,73,0.12,,,0.63,meteohub,2013-01-31 02:23:00,
2013-01-30 21:24:00,52.3,43.9,29.52,East,90,4.0,8.0,73,0.12,,,0.63,meteohub,2013-01-31 02:24:00,
2013-01-30 21:26:00,52.5,44.1,29.51,South,180,4.0,10.0,73,0.13,,,0.65,meteohub,2013-01-31 02:26:00,
2013-01-30 21:28:00,52.3,43.9,29.52,SE,135,6.0,10.0,73,0.13,,,0.65,meteohub,2013-01-31 02:28:00,
2013-01-30 21:30:00,52.3,43.9,29.52,South,180,10.0,10.0,73,0.13,,,0.65,meteohub,2013-01-31 02:30:00,
2013-01-30 21:31:00,52.3,43.9,29.52,SE,135,4.0,10.0,73,0.14,,,0.66,meteohub,2013-01-31 02:31:00,
2013-01-30 21:33:00,52.3,43.9,29.52,SE,135,3.0,10.0,73,0.14,,,0.66,meteohub,2013-01-31 02:33:00,
2013-01-30 21:36:00,52.5,44.1,29.52,SE,135,9.0,10.0,73,0.14,,,0.67,meteohub,2013-01-31 02:36:00,
2013-01-30 21:37:00,52.5,44.1,29.52,SE,135,4.0,10.0,73,0.14,,,0.67,meteohub,2013-01-31 02:37:00,
2013-01-30 21:38:00,52.5,44.1,29.52,SE,135,4.0,10.0,73,0.14,,,0.67,meteohub,2013-01-31 02:38:00,
2013-01-30 21:42:00,52.3,43.9,29.51,SE,135,4.0,10.0,73,0.14,,,0.69,meteohub,2013-01-31 02:42:00,
2013-01-30 21:43:00,52.3,43.9,29.52,South,180,6.0,10.0,73,0.14,,,0.69,meteohub,2013-01-31 02:43:00,
2013-01-30 21:44:00,52.3,43.9,29.51,SE,135,6.0,10.0,73,0.14,,,0.69,meteohub,2013-01-31 02:44:00,
2013-01-30 21:47:00,52.3,43.9,29.51,SE,135,4.0,10.0,73,0.14,,,0.70,meteohub,2013-01-31 02:47:00,
2013-01-30 21:48:00,52.3,43.9,29.49,SE,135,4.0,10.0,73,0.14,,,0.70,meteohub,2013-01-31 02:48:00,
2013-01-30 21:49:00,52.3,43.9,29.49,SE,135,7.0,10.0,73,0.14,,,0.70,meteohub,2013-01-31 02:49:00,
2013-01-30 21:53:00,52.3,43.9,29.49,SE,135,2.0,9.0,73,0.13,,,0.70,meteohub,2013-01-31 02:53:00,
2013-01-30 21:54:00,52.2,43.7,29.49,SE,135,3.0,9.0,73,0.13,,,0.70,meteohub,2013-01-31 02:54:00,
2013-01-30 21:58:00,52.3,43.9,29.49,SE,135,4.0,7.0,73,0.12,,,0.70,meteohub,2013-01-31 02:58:00,
2013-01-30 21:59:00,52.3,43.9,29.49,SE,135,2.0,7.0,73,0.12,,,0.70,meteohub,2013-01-31 02:59:00,
2013-01-30 22:00:00,52.3,43.9,29.49,SE,135,2.0,7.0,73,0.12,,,0.70,meteohub,2013-01-31 03:00:00,
2013-01-30 22:04:00,52.3,43.9,29.50,SE,135,2.0,7.0,73,0.12,,,0.71,meteohub,2013-01-31 03:04:00,
2013-01-30 22:05:00,52.3,43.9,29.49,SE,135,2.0,7.0,73,0.12,,,0.71,meteohub,2013-01-31 03:05:00,
2013-01-30 22:09:00,52.2,43.7,29.49,South,180,5.0,7.0,73,0.12,,,0.72,meteohub,2013-01-31 03:09:00,
2013-01-30 22:10:00,52.2,43.7,29.49,SE,135,6.0,7.0,73,0.12,,,0.73,meteohub,2013-01-31 03:10:00,
2013-01-30 22:12:00,52.3,43.9,29.49,WSW,248,4.0,7.0,73,0.12,,,0.73,meteohub,2013-01-31 03:12:00,
2013-01-30 22:14:00,52.3,43.9,29.50,West,270,5.0,7.0,73,0.12,,,0.73,meteohub,2013-01-31 03:14:00,
2013-01-30 22:15:00,52.2,43.7,29.50,SE,135,8.0,8.0,73,0.12,,,0.74,meteohub,2013-01-31 03:15:00,
2013-01-30 22:16:00,52.2,43.7,29.50,SE,135,8.0,8.0,73,0.12,,,0.74,meteohub,2013-01-31 03:16:00,
2013-01-30 22:17:00,52.2,43.7,29.50,SE,135,8.0,8.0,73,0.12,,,0.74,meteohub,2013-01-31 03:17:00,
2013-01-30 22:20:00,51.8,43.7,29.50,NW,315,5.0,6.0,74,0.12,,,0.77,meteohub,2013-01-31 03:20:00,
2013-01-30 22:21:00,51.6,43.5,29.50,WSW,248,8.0,21.0,74,0.14,,,0.77,meteohub,2013-01-31 03:21:00,
2013-01-30 22:22:00,51.6,43.5,29.50,NW,315,8.0,21.0,74,0.14,,,0.77,meteohub,2013-01-31 03:22:00,
2013-01-30 22:25:00,51.4,43.2,29.50,WSW,248,5.0,21.0,73,0.13,,,0.77,meteohub,2013-01-31 03:25:00,
2013-01-30 22:27:00,51.3,43.0,29.50,South,180,8.0,21.0,73,0.13,,,0.77,meteohub,2013-01-31 03:27:00,
2013-01-30 22:28:00,51.3,43.0,29.50,NW,315,13.0,21.0,73,0.13,,,0.77,meteohub,2013-01-31 03:28:00,
2013-01-30 22:30:00,51.1,42.8,29.51,WSW,248,13.0,21.0,73,0.11,,,0.78,meteohub,2013-01-31 03:30:00,
2013-01-30 22:32:00,50.9,42.6,29.51,SE,135,8.0,21.0,73,0.11,,,0.78,meteohub,2013-01-31 03:32:00,
2013-01-30 22:33:00,50.7,42.4,29.51,South,180,11.0,21.0,73,0.11,,,0.78,meteohub,2013-01-31 03:33:00,
2013-01-30 22:36:00,50.4,42.1,29.51,WSW,248,10.0,13.0,73,0.11,,,0.79,meteohub,2013-01-31 03:36:00,
2013-01-30 22:38:00,50.2,41.9,29.51,NW,315,7.0,13.0,73,0.11,,,0.79,meteohub,2013-01-31 03:38:00,
2013-01-30 22:39:00,50.2,41.9,29.50,NW,315,8.0,13.0,73,0.11,,,0.79,meteohub,2013-01-31 03:39:00,
2013-01-30 22:41:00,50.0,41.7,29.50,WSW,248,11.0,13.0,73,0.13,,,0.81,meteohub,2013-01-31 03:41:00,
2013-01-30 22:43:00,49.8,41.5,29.50,WSW,248,6.0,13.0,73,0.13,,,0.81,meteohub,2013-01-31 03:43:00,
2013-01-30 22:44:00,49.6,41.4,29.49,WSW,248,8.0,13.0,73,0.13,,,0.81,meteohub,2013-01-31 03:44:00,
2013-01-30 22:46:00,49.6,41.4,29.49,West,270,8.0,13.0,73,0.13,,,0.83,meteohub,2013-01-31 03:46:00,
2013-01-30 22:49:00,49.5,41.2,29.49,WSW,248,11.0,13.0,73,0.13,,,0.83,meteohub,2013-01-31 03:49:00,
2013-01-30 22:52:00,49.5,41.2,29.49,North,0,7.0,13.0,73,0.14,,,0.84,meteohub,2013-01-31 03:52:00,
2013-01-30 22:54:00,49.3,41.0,29.49,South,180,11.0,13.0,73,0.14,,,0.84,meteohub,2013-01-31 03:54:00,
2013-01-30 22:55:00,49.3,41.0,29.49,West,270,14.0,14.0,73,0.14,,,0.84,meteohub,2013-01-31 03:55:00,
2013-01-30 22:57:00,49.3,41.0,29.49,West,270,6.0,13.0,73,0.14,,,0.84,meteohub,2013-01-31 03:57:00,
2013-01-30 22:58:00,49.3,41.0,29.49,WSW,248,11.0,13.0,73,0.14,,,0.84,meteohub,2013-01-31 03:58:00,
2013-01-30 22:59:00,49.3,41.0,29.49,West,270,7.0,13.0,73,0.14,,,0.84,meteohub,2013-01-31 03:59:00,
2013-01-30 23:00:00,49.3,41.0,29.49,WSW,248,5.0,13.0,73,0.14,,,0.84,meteohub,2013-01-31 04:00:00,
2013-01-30 23:03:00,49.3,41.0,29.49,WSW,248,12.0,14.0,73,0.13,,,0.84,meteohub,2013-01-31 04:03:00,
2013-01-30 23:04:00,49.3,41.0,29.49,WSW,248,6.0,14.0,73,0.13,,,0.84,meteohub,2013-01-31 04:04:00,
2013-01-30 23:05:00,49.3,40.6,29.50,West,270,13.0,14.0,72,0.13,,,0.84,meteohub,2013-01-31 04:05:00,
2013-01-30 23:08:00,49.3,40.6,29.49,WSW,248,7.0,14.0,72,0.13,,,0.85,meteohub,2013-01-31 04:08:00,
2013-01-30 23:10:00,49.3,40.6,29.49,West,270,4.0,14.0,72,0.13,,,0.85,meteohub,2013-01-31 04:10:00,
2013-01-30 23:11:00,49.1,40.5,29.50,SSW,203,11.0,17.0,72,0.12,,,0.85,meteohub,2013-01-31 04:11:00,
2013-01-30 23:14:00,49.1,40.5,29.50,WSW,248,20.0,20.0,72,0.12,,,0.85,meteohub,2013-01-31 04:14:00,
2013-01-30 23:16:00,49.1,40.5,29.50,South,180,11.0,20.0,72,0.11,,,0.86,meteohub,2013-01-31 04:16:00,
2013-01-30 23:17:00,49.1,40.5,29.50,South,180,11.0,20.0,72,0.11,,,0.86,meteohub,2013-01-31 04:17:00,
2013-01-30 23:19:00,49.1,40.5,29.50,WSW,248,8.0,20.0,72,0.11,,,0.86,meteohub,2013-01-31 04:19:00,
2013-01-30 23:22:00,49.1,40.5,29.50,NW,315,4.0,20.0,72,0.09,,,0.86,meteohub,2013-01-31 04:22:00,
2013-01-30 23:23:00,49.1,40.5,29.50,WSW,248,6.0,20.0,72,0.09,,,0.86,meteohub,2013-01-31 04:23:00,
2013-01-30 23:24:00,49.1,40.5,29.49,West,270,14.0,20.0,72,0.09,,,0.86,meteohub,2013-01-31 04:24:00,
2013-01-30 23:27:00,49.1,40.5,29.49,WSW,248,8.0,20.0,72,0.09,,,0.87,meteohub,2013-01-31 04:27:00,
2013-01-30 23:28:00,48.9,40.3,29.49,West,270,11.0,20.0,72,0.09,,,0.87,meteohub,2013-01-31 04:28:00,
2013-01-30 23:30:00,48.9,40.3,29.49,West,270,13.0,20.0,72,0.09,,,0.89,meteohub,2013-01-31 04:30:00,
2013-01-30 23:32:00,48.9,39.9,29.49,WSW,248,11.0,15.0,71,0.09,,,0.89,meteohub,2013-01-31 04:32:00,
2013-01-30 23:33:00,48.9,39.9,29.49,NW,315,9.0,15.0,71,0.09,,,0.89,meteohub,2013-01-31 04:33:00,
2013-01-30 23:34:00,48.9,39.9,29.49,South,180,9.0,15.0,71,0.09,,,0.89,meteohub,2013-01-31 04:34:00,
2013-01-30 23:35:00,48.9,39.9,29.49,WSW,248,5.0,15.0,71,0.09,,,0.89,meteohub,2013-01-31 04:35:00,
2013-01-30 23:37:00,48.7,39.7,29.49,South,180,7.0,15.0,71,0.09,,,0.89,meteohub,2013-01-31 04:37:00,
2013-01-30 23:39:00,48.7,39.7,29.49,WSW,248,8.0,15.0,71,0.09,,,0.89,meteohub,2013-01-31 04:39:00,
2013-01-30 23:41:00,48.7,39.7,29.49,WSW,248,11.0,13.0,71,0.08,,,0.90,meteohub,2013-01-31 04:41:00,
2013-01-30 23:43:00,48.6,39.6,29.49,WSW,248,4.0,13.0,71,0.08,,,0.90,meteohub,2013-01-31 04:43:00,
2013-01-30 23:44:00,48.6,39.6,29.49,WSW,248,4.0,13.0,71,0.08,,,0.90,meteohub,2013-01-31 04:44:00,
2013-01-30 23:45:00,48.6,39.6,29.49,WSW,248,8.0,13.0,71,0.08,,,0.90,meteohub,2013-01-31 04:45:00,
2013-01-30 23:46:00,48.6,39.6,29.50,NW,315,7.0,12.0,71,0.08,,,0.91,meteohub,2013-01-31 04:46:00,
2013-01-30 23:48:00,48.6,39.2,29.50,NNW,338,7.0,12.0,70,0.08,,,0.91,meteohub,2013-01-31 04:48:00,
2013-01-30 23:50:00,48.4,39.0,29.50,SSE,158,11.0,12.0,70,0.08,,,0.92,meteohub,2013-01-31 04:50:00,
2013-01-30 23:52:00,48.4,39.0,29.51,WNW,293,10.0,12.0,70,0.08,,,0.92,meteohub,2013-01-31 04:52:00,
2013-01-30 23:54:00,48.2,38.8,29.51,West,270,13.0,13.0,70,0.08,,,0.92,meteohub,2013-01-31 04:54:00,
2013-01-30 23:55:00,48.2,38.8,29.51,WSW,248,6.0,17.0,70,0.09,,,0.93,meteohub,2013-01-31 04:55:00,
2013-01-30 23:57:00,48.0,38.7,29.51,NW,315,7.0,17.0,70,0.09,,,0.93,meteohub,2013-01-31 04:57:00,
2013-01-30 23:59:00,47.8,38.1,29.50,West,270,19.0,19.0,69,0.09,,,0.93,meteohub,2013-01-31 04:59:00,